Wetterdaten: Donnerstag, 10.03.2022
Datum Zeit Temp. Aussen Temp. o. S. Temp +5cm Feuchte Auss Luftdruck Regen Sonnenschein Regendauer Solar Windben Empfang
10.03.2022 00:00 5,9 C 5,0 C 1,7 C 55 % 1024,3 hPa 0,0 l/m 0 min 0 min 0 W/m 12,9 km/h (3 Bft) 95,74 %
10.03.2022 00:02 5,9 C 5,0 C 1,1 C 55 % 1024,3 hPa 0,0 l/m 0 min 0 min 0 W/m 6,4 km/h (2 Bft) 95,24 %
10.03.2022 00:04 5,9 C 5,0 C 1,7 C 55 % 1024,2 hPa 0,0 l/m 0 min 0 min 0 W/m 12,9 km/h (3 Bft) 95,74 %
10.03.2022 00:08 5,9 C 5,0 C 1,7 C 55 % 1024,3 hPa 0,0 l/m 0 min 0 min 0 W/m 16,1 km/h (3 Bft) 95,70 %
10.03.2022 00:10 5,9 C 5,0 C 1,1 C 56 % 1024,3 hPa 0,0 l/m 0 min 0 min 0 W/m 6,4 km/h (2 Bft) 95,74 %
10.03.2022 00:12 5,9 C 5,0 C 1,1 C 56 % 1024,2 hPa 0,0 l/m 0 min 0 min 0 W/m 6,4 km/h (2 Bft) 93,62 %
10.03.2022 00:14 5,8 C 5,0 C 1,1 C 55 % 1024,2 hPa 0,0 l/m 0 min 0 min 0 W/m 6,4 km/h (2 Bft) 95,74 %
10.03.2022 00:16 5,8 C 5,0 C 1,1 C 55 % 1024,2 hPa 0,0 l/m 0 min 0 min 0 W/m 6,4 km/h (2 Bft) 97,83 %
10.03.2022 00:18 5,8 C 5,0 C 1,1 C 55 % 1024,3 hPa 0,0 l/m 0 min 0 min 0 W/m 12,9 km/h (3 Bft) 95,74 %
10.03.2022 00:20 5,8 C 5,0 C 1,1 C 55 % 1024,3 hPa 0,0 l/m 0 min 0 min 0 W/m 12,9 km/h (3 Bft) 95,74 %
10.03.2022 00:22 5,8 C 5,0 C 1,1 C 55 % 1024,3 hPa 0,0 l/m 0 min 0 min 0 W/m 12,9 km/h (3 Bft) 95,74 %
10.03.2022 00:24 5,8 C 5,0 C 1,1 C 56 % 1024,3 hPa 0,0 l/m 0 min 0 min 0 W/m 12,9 km/h (3 Bft) 97,87 %
10.03.2022 00:26 5,8 C 5,0 C 1,1 C 55 % 1024,4 hPa 0,0 l/m 0 min 0 min 0 W/m 6,4 km/h (2 Bft) 97,87 %
10.03.2022 00:28 5,8 C 5,0 C 1,1 C 56 % 1024,5 hPa 0,0 l/m 0 min 0 min 0 W/m 6,4 km/h (2 Bft) 95,65 %
10.03.2022 00:30 5,7 C 5,0 C 1,1 C 56 % 1024,5 hPa 0,0 l/m 0 min 0 min 0 W/m 3,2 km/h (1 Bft) 95,74 %
10.03.2022 00:32 5,7 C 4,4 C 1,1 C 56 % 1024,5 hPa 0,0 l/m 0 min 0 min 0 W/m 6,4 km/h (2 Bft) 97,87 %
10.03.2022 00:34 5,7 C 4,4 C 1,1 C 56 % 1024,5 hPa 0,0 l/m 0 min 0 min 0 W/m 3,2 km/h (1 Bft) 97,87 %
10.03.2022 00:36 5,7 C 4,4 C 1,1 C 56 % 1024,6 hPa 0,0 l/m 0 min 0 min 0 W/m 6,4 km/h (2 Bft) 97,87 %
10.03.2022 00:38 5,7 C 4,4 C 1,1 C 56 % 1024,6 hPa 0,0 l/m 0 min 0 min 0 W/m 12,9 km/h (3 Bft) 97,87 %
10.03.2022 00:42 5,6 C 4,4 C 1,1 C 56 % 1024,6 hPa 0,0 l/m 0 min 0 min 0 W/m 6,4 km/h (2 Bft) 97,85 %
10.03.2022 00:44 5,6 C 4,4 C 1,1 C 56 % 1024,6 hPa 0,0 l/m 0 min 0 min 0 W/m 6,4 km/h (2 Bft) 97,87 %
10.03.2022 00:46 5,6 C 4,4 C 0,6 C 56 % 1024,6 hPa 0,0 l/m 0 min 0 min 0 W/m 6,4 km/h (2 Bft) 94,34 %
10.03.2022 00:48 5,6 C 4,4 C 0,6 C 56 % 1024,6 hPa 0,0 l/m 0 min 0 min 0 W/m 12,9 km/h (3 Bft) 97,14 %
10.03.2022 00:50 5,5 C 4,4 C 0,6 C 56 % 1024,6 hPa 0,0 l/m 0 min 0 min 0 W/m 6,4 km/h (2 Bft) 96,43 %
10.03.2022 00:52 5,5 C 4,4 C 0,6 C 57 % 1024,6 hPa 0,0 l/m 0 min 0 min 0 W/m 6,4 km/h (2 Bft) 97,87 %
10.03.2022 00:54 5,4 C 4,4 C 0,6 C 57 % 1024,5 hPa 0,0 l/m 0 min 0 min 0 W/m 6,4 km/h (2 Bft) 97,87 %
10.03.2022 00:56 5,4 C 4,4 C 0,6 C 57 % 1024,6 hPa 0,0 l/m 0 min 0 min 0 W/m 6,4 km/h (2 Bft) 97,87 %
10.03.2022 00:58 5,4 C 4,4 C 1,1 C 57 % 1024,6 hPa 0,0 l/m 0 min 0 min 0 W/m 6,4 km/h (2 Bft) 97,83 %
10.03.2022 01:00 5,4 C 4,4 C 0,6 C 57 % 1024,6 hPa 0,0 l/m 0 min 0 min 0 W/m 12,9 km/h (3 Bft) 80,85 %
10.03.2022 01:02 5,4 C 4,4 C 0,6 C 57 % 1024,5 hPa 0,0 l/m 0 min 0 min 0 W/m 12,9 km/h (3 Bft) 71,74 %
10.03.2022 01:04 5,4 C 4,4 C 0,6 C 57 % 1024,5 hPa 0,0 l/m 0 min 0 min 0 W/m 6,4 km/h (2 Bft) 97,87 %
10.03.2022 01:06 5,3 C 4,4 C 0,6 C 57 % 1024,6 hPa 0,0 l/m 0 min 0 min 0 W/m 12,9 km/h (3 Bft) 97,87 %
10.03.2022 01:08 5,3 C 4,4 C 0,6 C 57 % 1024,5 hPa 0,0 l/m 0 min 0 min 0 W/m 12,9 km/h (3 Bft) 97,83 %
10.03.2022 01:10 5,3 C 4,4 C 0,6 C 57 % 1024,6 hPa 0,0 l/m 0 min 0 min 0 W/m 12,9 km/h (3 Bft) 97,87 %
10.03.2022 01:12 5,3 C 4,4 C 0,6 C 57 % 1024,6 hPa 0,0 l/m 0 min 0 min 0 W/m 12,9 km/h (3 Bft) 97,87 %
10.03.2022 01:14 5,3 C 4,4 C 1,1 C 57 % 1024,7 hPa 0,0 l/m 0 min 0 min 0 W/m 12,9 km/h (3 Bft) 95,74 %
10.03.2022 01:16 5,3 C 4,4 C 1,1 C 57 % 1024,7 hPa 0,0 l/m 0 min 0 min 0 W/m 6,4 km/h (2 Bft) 97,87 %
10.03.2022 01:18 5,3 C 4,4 C 1,1 C 57 % 1024,7 hPa 0,0 l/m 0 min 0 min 0 W/m 12,9 km/h (3 Bft) 95,74 %
10.03.2022 01:20 5,3 C 4,4 C 1,1 C 57 % 1024,7 hPa 0,0 l/m 0 min 0 min 0 W/m 12,9 km/h (3 Bft) 100,00 %
10.03.2022 01:22 5,3 C 4,4 C 0,6 C 57 % 1024,8 hPa 0,0 l/m 0 min 0 min 0 W/m 6,4 km/h (2 Bft) 97,87 %
10.03.2022 01:24 5,3 C 4,4 C 0,6 C 57 % 1024,8 hPa 0,0 l/m 0 min 0 min 0 W/m 6,4 km/h (2 Bft) 100,00 %
10.03.2022 01:26 5,3 C 4,4 C 0,6 C 57 % 1024,8 hPa 0,0 l/m 0 min 0 min 0 W/m 9,7 km/h (2 Bft) 97,87 %
10.03.2022 01:28 5,2 C 4,4 C 0,6 C 57 % 1024,8 hPa 0,0 l/m 0 min 0 min 0 W/m 9,7 km/h (2 Bft) 100,00 %
10.03.2022 01:30 5,2 C 4,4 C 0,6 C 57 % 1024,8 hPa 0,0 l/m 0 min 0 min 0 W/m 12,9 km/h (3 Bft) 100,00 %
10.03.2022 01:32 5,2 C 4,4 C 0,6 C 57 % 1024,8 hPa 0,0 l/m 0 min 0 min 0 W/m 6,4 km/h (2 Bft) 100,00 %
10.03.2022 01:34 5,2 C 4,4 C 0,6 C 57 % 1024,8 hPa 0,0 l/m 0 min 0 min 0 W/m 12,9 km/h (3 Bft) 97,87 %
10.03.2022 01:36 5,2 C 4,4 C 0,6 C 57 % 1024,8 hPa 0,0 l/m 0 min 0 min 0 W/m 12,9 km/h (3 Bft) 100,00 %
10.03.2022 01:38 5,1 C 3,9 C 0,6 C 57 % 1024,8 hPa 0,0 l/m 0 min 0 min 0 W/m 12,9 km/h (3 Bft) 97,87 %
10.03.2022 01:40 5,1 C 3,9 C 0,6 C 57 % 1024,8 hPa 0,0 l/m 0 min 0 min 0 W/m 12,9 km/h (3 Bft) 100,00 %
10.03.2022 01:42 5,1 C 3,9 C 0,6 C 57 % 1024,8 hPa 0,0 l/m 0 min 0 min 0 W/m 12,9 km/h (3 Bft) 97,87 %
10.03.2022 01:44 5,1 C 3,9 C 0,6 C 57 % 1024,8 hPa 0,0 l/m 0 min 0 min 0 W/m 12,9 km/h (3 Bft) 97,83 %
10.03.2022 01:46 5,1 C 3,9 C 0,6 C 57 % 1024,8 hPa 0,0 l/m 0 min 0 min 0 W/m 6,4 km/h (2 Bft) 97,87 %
10.03.2022 01:48 5,0 C 3,9 C 0,6 C 57 % 1024,8 hPa 0,0 l/m 0 min 0 min 0 W/m 6,4 km/h (2 Bft) 100,00 %
10.03.2022 01:50 5,0 C 3,9 C 0,6 C 57 % 1024,8 hPa 0,0 l/m 0 min 0 min 0 W/m 12,9 km/h (3 Bft) 97,87 %
10.03.2022 01:52 5,0 C 3,9 C 0,6 C 57 % 1024,8 hPa 0,0 l/m 0 min 0 min 0 W/m 16,1 km/h (3 Bft) 95,74 %
10.03.2022 01:54 4,9 C 3,9 C 0,6 C 57 % 1024,8 hPa 0,0 l/m 0 min 0 min 0 W/m 16,1 km/h (3 Bft) 95,74 %
10.03.2022 01:56 4,9 C 3,9 C 0,6 C 57 % 1024,8 hPa 0,0 l/m 0 min 0 min 0 W/m 16,1 km/h (3 Bft) 95,65 %
10.03.2022 01:58 4,9 C 3,9 C 0,6 C 57 % 1024,8 hPa 0,0 l/m 0 min 0 min 0 W/m 6,4 km/h (2 Bft) 95,74 %
10.03.2022 02:00 4,9 C 3,9 C 0,6 C 57 % 1024,9 hPa 0,0 l/m 0 min 0 min 0 W/m 6,4 km/h (2 Bft) 95,74 %
10.03.2022 02:02 4,9 C 3,9 C 0,6 C 57 % 1024,9 hPa 0,0 l/m 0 min 0 min 0 W/m 9,7 km/h (2 Bft) 95,74 %
10.03.2022 02:04 4,9 C 3,9 C 0,6 C 57 % 1024,9 hPa 0,0 l/m 0 min 0 min 0 W/m 12,9 km/h (3 Bft) 95,74 %
10.03.2022 02:06 4,9 C 3,9 C 0,6 C 57 % 1024,9 hPa 0,0 l/m 0 min 0 min 0 W/m 12,9 km/h (3 Bft) 95,74 %
10.03.2022 02:08 4,9 C 3,9 C 0,6 C 57 % 1024,8 hPa 0,0 l/m 0 min 0 min 0 W/m 6,4 km/h (2 Bft) 94,74 %
10.03.2022 02:10 4,9 C 3,9 C 0,6 C 57 % 1024,8 hPa 0,0 l/m 0 min 0 min 0 W/m 9,7 km/h (2 Bft) 95,65 %
10.03.2022 02:12 4,9 C 3,9 C 0,6 C 57 % 1024,8 hPa 0,0 l/m 0 min 0 min 0 W/m 6,4 km/h (2 Bft) 95,74 %
10.03.2022 02:14 4,9 C 3,9 C 0,6 C 57 % 1024,8 hPa 0,0 l/m 0 min 0 min 0 W/m 12,9 km/h (3 Bft) 95,74 %
10.03.2022 02:16 4,8 C 3,9 C 0,6 C 57 % 1024,8 hPa 0,0 l/m 0 min 0 min 0 W/m 9,7 km/h (2 Bft) 93,62 %
10.03.2022 02:18 4,8 C 3,9 C 0,6 C 57 % 1024,8 hPa 0,0 l/m 0 min 0 min 0 W/m 16,1 km/h (3 Bft) 95,74 %
10.03.2022 02:20 4,8 C 3,9 C 0,6 C 57 % 1024,7 hPa 0,0 l/m 0 min 0 min 0 W/m 16,1 km/h (3 Bft) 97,87 %
10.03.2022 02:22 4,8 C 3,9 C 0,6 C 57 % 1024,8 hPa 0,0 l/m 0 min 0 min 0 W/m 6,4 km/h (2 Bft) 97,83 %
10.03.2022 02:24 4,8 C 3,9 C 0,6 C 57 % 1024,7 hPa 0,0 l/m 0 min 0 min 0 W/m 6,4 km/h (2 Bft) 97,87 %
10.03.2022 02:26 4,8 C 3,9 C 0,6 C 57 % 1024,7 hPa 0,0 l/m 0 min 0 min 0 W/m 12,9 km/h (3 Bft) 97,87 %
10.03.2022 02:28 4,8 C 3,9 C 0,6 C 57 % 1024,7 hPa 0,0 l/m 0 min 0 min 0 W/m 9,7 km/h (2 Bft) 97,87 %
10.03.2022 02:30 4,8 C 3,9 C 0,6 C 57 % 1024,7 hPa 0,0 l/m 0 min 0 min 0 W/m 16,1 km/h (3 Bft) 97,87 %
10.03.2022 02:32 4,7 C 3,9 C 0,6 C 57 % 1024,7 hPa 0,0 l/m 0 min 0 min 0 W/m 12,9 km/h (3 Bft) 100,00 %
10.03.2022 02:34 4,7 C 3,9 C 0,0 C 57 % 1024,7 hPa 0,0 l/m 0 min 0 min 0 W/m 9,7 km/h (2 Bft) 100,00 %
10.03.2022 02:36 4,7 C 3,9 C 0,0 C 57 % 1024,7 hPa 0,0 l/m 0 min 0 min 0 W/m 12,9 km/h (3 Bft) 100,00 %
10.03.2022 02:38 4,7 C 3,9 C 0,0 C 57 % 1024,7 hPa 0,0 l/m 0 min 0 min 0 W/m 16,1 km/h (3 Bft) 100,00 %
10.03.2022 02:40 4,7 C 3,9 C 0,0 C 57 % 1024,7 hPa 0,0 l/m 0 min 0 min 0 W/m 6,4 km/h (2 Bft) 97,87 %
10.03.2022 02:42 4,7 C 3,9 C 0,0 C 57 % 1024,7 hPa 0,0 l/m 0 min 0 min 0 W/m 12,9 km/h (3 Bft) 100,00 %
10.03.2022 02:44 4,7 C 3,9 C 0,0 C 58 % 1024,7 hPa 0,0 l/m 0 min 0 min 0 W/m 12,9 km/h (3 Bft) 97,87 %
10.03.2022 02:46 4,6 C 3,9 C 0,0 C 58 % 1024,7 hPa 0,0 l/m 0 min 0 min 0 W/m 16,1 km/h (3 Bft) 100,00 %
10.03.2022 02:48 4,6 C 3,9 C 0,0 C 58 % 1024,7 hPa 0,0 l/m 0 min 0 min 0 W/m 6,4 km/h (2 Bft) 100,00 %
10.03.2022 02:50 4,6 C 3,9 C 0,0 C 58 % 1024,7 hPa 0,0 l/m 0 min 0 min 0 W/m 12,9 km/h (3 Bft) 97,87 %
10.03.2022 02:52 4,6 C 3,9 C 0,0 C 57 % 1024,7 hPa 0,0 l/m 0 min 0 min 0 W/m 9,7 km/h (2 Bft) 100,00 %
10.03.2022 02:54 4,6 C 3,3 C 0,0 C 58 % 1024,7 hPa 0,0 l/m 0 min 0 min 0 W/m 9,7 km/h (2 Bft) 100,00 %
10.03.2022 02:56 4,6 C 3,3 C 0,0 C 58 % 1024,7 hPa 0,0 l/m 0 min 0 min 0 W/m 12,9 km/h (3 Bft) 100,00 %
10.03.2022 02:58 4,5 C 3,3 C 0,0 C 58 % 1024,7 hPa 0,0 l/m 0 min 0 min 0 W/m 6,4 km/h (2 Bft) 100,00 %
10.03.2022 03:00 4,5 C 3,3 C 0,0 C 58 % 1024,7 hPa 0,0 l/m 0 min 0 min 0 W/m 6,4 km/h (2 Bft) 100,00 %
10.03.2022 03:02 4,4 C 3,3 C 0,0 C 58 % 1024,7 hPa 0,0 l/m 0 min 0 min 0 W/m 12,9 km/h (3 Bft) 97,87 %
10.03.2022 03:04 4,4 C 3,3 C 0,0 C 58 % 1024,6 hPa 0,0 l/m 0 min 0 min 0 W/m 6,4 km/h (2 Bft) 100,00 %
10.03.2022 03:06 4,4 C 3,3 C 0,0 C 58 % 1024,6 hPa 0,0 l/m 0 min 0 min 0 W/m 6,4 km/h (2 Bft) 97,87 %
10.03.2022 03:08 4,3 C 3,3 C 0,0 C 59 % 1024,6 hPa 0,0 l/m 0 min 0 min 0 W/m 12,9 km/h (3 Bft) 100,00 %
10.03.2022 03:10 4,3 C 3,3 C 0,0 C 59 % 1024,6 hPa 0,0 l/m 0 min 0 min 0 W/m 9,7 km/h (2 Bft) 100,00 %
10.03.2022 03:12 4,3 C 3,3 C 0,0 C 59 % 1024,6 hPa 0,0 l/m 0 min 0 min 0 W/m 6,4 km/h (2 Bft) 100,00 %
10.03.2022 03:14 4,3 C 3,3 C 0,0 C 59 % 1024,6 hPa 0,0 l/m 0 min 0 min 0 W/m 6,4 km/h (2 Bft) 100,00 %
10.03.2022 03:16 4,3 C 3,3 C 0,0 C 59 % 1024,6 hPa 0,0 l/m 0 min 0 min 0 W/m 6,4 km/h (2 Bft) 97,87 %
10.03.2022 03:18 4,2 C 3,3 C 0,0 C 59 % 1024,6 hPa 0,0 l/m 0 min 0 min 0 W/m 12,9 km/h (3 Bft) 100,00 %
10.03.2022 03:20 4,2 C 3,3 C 0,0 C 59 % 1024,6 hPa 0,0 l/m 0 min 0 min 0 W/m 6,4 km/h (2 Bft) 100,00 %
10.03.2022 03:22 4,2 C 3,3 C 0,0 C 59 % 1024,6 hPa 0,0 l/m 0 min 0 min 0 W/m 12,9 km/h (3 Bft) 100,00 %
10.03.2022 03:24 4,1 C 3,3 C 0,0 C 59 % 1024,6 hPa 0,0 l/m 0 min 0 min 0 W/m 6,4 km/h (2 Bft) 100,00 %
10.03.2022 03:26 4,1 C 3,3 C 0,0 C 59 % 1024,7 hPa 0,0 l/m 0 min 0 min 0 W/m 12,9 km/h (3 Bft) 97,87 %
10.03.2022 03:28 4,1 C 3,3 C -0,6 C 59 % 1024,6 hPa 0,0 l/m 0 min 0 min 0 W/m 12,9 km/h (3 Bft) 100,00 %
10.03.2022 03:30 4,1 C 3,3 C 0,0 C 59 % 1024,6 hPa 0,0 l/m 0 min 0 min 0 W/m 6,4 km/h (2 Bft) 100,00 %
10.03.2022 03:32 4,1 C 3,3 C 0,0 C 59 % 1024,6 hPa 0,0 l/m 0 min 0 min 0 W/m 16,1 km/h (3 Bft) 100,00 %
10.03.2022 03:34 4,1 C 3,3 C -0,6 C 59 % 1024,6 hPa 0,0 l/m 0 min 0 min 0 W/m 12,9 km/h (3 Bft) 100,00 %
10.03.2022 03:36 4,1 C 3,3 C -0,6 C 59 % 1024,6 hPa 0,0 l/m 0 min 0 min 0 W/m 12,9 km/h (3 Bft) 95,74 %
10.03.2022 03:38 4,1 C 3,3 C -0,6 C 59 % 1024,5 hPa 0,0 l/m 0 min 0 min 0 W/m 6,4 km/h (2 Bft) 95,74 %
10.03.2022 03:40 4,0 C 3,3 C -0,6 C 60 % 1024,5 hPa 0,0 l/m 0 min 0 min 0 W/m 6,4 km/h (2 Bft) 97,87 %
10.03.2022 03:42 4,0 C 3,3 C -0,6 C 60 % 1024,5 hPa 0,0 l/m 0 min 0 min 0 W/m 12,9 km/h (3 Bft) 95,74 %
10.03.2022 03:44 4,0 C 3,3 C -0,6 C 60 % 1024,5 hPa 0,0 l/m 0 min 0 min 0 W/m 12,9 km/h (3 Bft) 95,65 %
10.03.2022 03:46 3,9 C 3,3 C -0,6 C 60 % 1024,5 hPa 0,0 l/m 0 min 0 min 0 W/m 12,9 km/h (3 Bft) 95,74 %
10.03.2022 03:48 3,9 C 3,3 C -0,6 C 60 % 1024,4 hPa 0,0 l/m 0 min 0 min 0 W/m 9,7 km/h (2 Bft) 93,62 %
10.03.2022 03:50 3,9 C 3,3 C -0,6 C 60 % 1024,4 hPa 0,0 l/m 0 min 0 min 0 W/m 12,9 km/h (3 Bft) 95,74 %
10.03.2022 03:52 3,9 C 3,3 C -0,6 C 60 % 1024,4 hPa 0,0 l/m 0 min 0 min 0 W/m 12,9 km/h (3 Bft) 93,62 %
10.03.2022 03:54 3,9 C 3,3 C -0,6 C 60 % 1024,4 hPa 0,0 l/m 0 min 0 min 0 W/m 12,9 km/h (3 Bft) 97,87 %
10.03.2022 03:56 3,9 C 3,3 C -0,6 C 60 % 1024,4 hPa 0,0 l/m 0 min 0 min 0 W/m 12,9 km/h (3 Bft) 93,48 %
10.03.2022 03:58 3,9 C 3,3 C -0,6 C 60 % 1024,4 hPa 0,0 l/m 0 min 0 min 0 W/m 12,9 km/h (3 Bft) 93,62 %
10.03.2022 04:00 3,9 C 3,3 C -0,6 C 60 % 1024,4 hPa 0,0 l/m 0 min 0 min 0 W/m 12,9 km/h (3 Bft) 95,74 %
10.03.2022 04:02 3,9 C 3,3 C -0,6 C 61 % 1024,4 hPa 0,0 l/m 0 min 0 min 0 W/m 12,9 km/h (3 Bft) 96,30 %
10.03.2022 04:04 3,9 C 2,8 C -0,6 C 61 % 1024,4 hPa 0,0 l/m 0 min 0 min 0 W/m 6,4 km/h (2 Bft) 95,74 %
10.03.2022 04:06 3,9 C 2,8 C -0,6 C 61 % 1024,5 hPa 0,0 l/m 0 min 0 min 0 W/m 6,4 km/h (2 Bft) 95,74 %
10.03.2022 04:08 3,8 C 2,8 C -0,6 C 61 % 1024,4 hPa 0,0 l/m 0 min 0 min 0 W/m 6,4 km/h (2 Bft) 97,83 %
10.03.2022 04:10 3,8 C 2,8 C -0,6 C 61 % 1024,4 hPa 0,0 l/m 0 min 0 min 0 W/m 12,9 km/h (3 Bft) 95,74 %
10.03.2022 04:12 3,8 C 2,8 C -0,6 C 61 % 1024,4 hPa 0,0 l/m 0 min 0 min 0 W/m 6,4 km/h (2 Bft) 95,74 %
10.03.2022 04:14 3,8 C 2,8 C -0,6 C 61 % 1024,4 hPa 0,0 l/m 0 min 0 min 0 W/m 12,9 km/h (3 Bft) 95,74 %
10.03.2022 04:16 3,8 C 2,8 C -0,6 C 61 % 1024,4 hPa 0,0 l/m 0 min 0 min 0 W/m 6,4 km/h (2 Bft) 93,62 %
10.03.2022 04:18 3,8 C 2,8 C -0,6 C 61 % 1024,4 hPa 0,0 l/m 0 min 0 min 0 W/m 12,9 km/h (3 Bft) 95,74 %
10.03.2022 04:20 3,8 C 2,8 C -0,6 C 61 % 1024,4 hPa 0,0 l/m 0 min 0 min 0 W/m 9,7 km/h (2 Bft) 95,65 %
10.03.2022 04:22 3,8 C 2,8 C -0,6 C 61 % 1024,4 hPa 0,0 l/m 0 min 0 min 0 W/m 12,9 km/h (3 Bft) 95,74 %
10.03.2022 04:24 3,8 C 2,8 C -0,6 C 60 % 1024,4 hPa 0,0 l/m 0 min 0 min 0 W/m 6,4 km/h (2 Bft) 95,74 %
10.03.2022 04:26 3,8 C 2,8 C -0,6 C 61 % 1024,5 hPa 0,0 l/m 0 min 0 min 0 W/m 12,9 km/h (3 Bft) 93,62 %
10.03.2022 04:28 3,7 C 2,8 C -0,6 C 61 % 1024,4 hPa 0,0 l/m 0 min 0 min 0 W/m 12,9 km/h (3 Bft) 95,74 %
10.03.2022 04:30 3,7 C 3,3 C -0,6 C 60 % 1024,4 hPa 0,0 l/m 0 min 0 min 0 W/m 12,9 km/h (3 Bft) 93,62 %
10.03.2022 04:32 3,7 C 2,8 C -0,6 C 60 % 1024,5 hPa 0,0 l/m 0 min 0 min 0 W/m 9,7 km/h (2 Bft) 95,65 %
10.03.2022 04:34 3,7 C 2,8 C -0,6 C 61 % 1024,6 hPa 0,0 l/m 0 min 0 min 0 W/m 12,9 km/h (3 Bft) 93,62 %
10.03.2022 04:36 3,7 C 2,8 C -0,6 C 61 % 1024,6 hPa 0,0 l/m 0 min 0 min 0 W/m 12,9 km/h (3 Bft) 93,62 %
10.03.2022 04:38 3,7 C 2,8 C -0,6 C 61 % 1024,6 hPa 0,0 l/m 0 min 0 min 0 W/m 12,9 km/h (3 Bft) 97,87 %
10.03.2022 04:40 3,7 C 2,8 C -0,6 C 61 % 1024,7 hPa 0,0 l/m 0 min 0 min 0 W/m 16,1 km/h (3 Bft) 97,87 %
10.03.2022 04:42 3,7 C 2,8 C -0,6 C 61 % 1024,7 hPa 0,0 l/m 0 min 0 min 0 W/m 6,4 km/h (2 Bft) 95,74 %
10.03.2022 04:44 3,7 C 2,8 C -0,6 C 61 % 1024,7 hPa 0,0 l/m 0 min 0 min 0 W/m 12,9 km/h (3 Bft) 97,83 %
10.03.2022 04:46 3,7 C 2,8 C -0,6 C 61 % 1024,6 hPa 0,0 l/m 0 min 0 min 0 W/m 6,4 km/h (2 Bft) 97,87 %
10.03.2022 04:48 3,7 C 2,8 C -0,6 C 61 % 1024,6 hPa 0,0 l/m 0 min 0 min 0 W/m 12,9 km/h (3 Bft) 97,96 %
10.03.2022 04:50 3,7 C 2,8 C -0,6 C 61 % 1024,6 hPa 0,0 l/m 0 min 0 min 0 W/m 16,1 km/h (3 Bft) 97,87 %
10.03.2022 04:52 3,7 C 2,8 C -0,6 C 61 % 1024,7 hPa 0,0 l/m 0 min 0 min 0 W/m 12,9 km/h (3 Bft) 100,00 %
10.03.2022 04:54 3,7 C 2,8 C -0,6 C 61 % 1024,7 hPa 0,0 l/m 0 min 0 min 0 W/m 6,4 km/h (2 Bft) 100,00 %
10.03.2022 04:56 3,7 C 2,8 C -0,6 C 61 % 1024,7 hPa 0,0 l/m 0 min 0 min 0 W/m 6,4 km/h (2 Bft) 100,00 %
10.03.2022 04:58 3,6 C 2,8 C -0,6 C 61 % 1024,7 hPa 0,0 l/m 0 min 0 min 0 W/m 12,9 km/h (3 Bft) 100,00 %
10.03.2022 05:00 3,6 C 2,8 C -0,6 C 61 % 1024,7 hPa 0,0 l/m 0 min 0 min 0 W/m 12,9 km/h (3 Bft) 100,00 %
10.03.2022 05:02 3,6 C 2,8 C -0,6 C 61 % 1024,7 hPa 0,0 l/m 0 min 0 min 0 W/m 12,9 km/h (3 Bft) 100,00 %
10.03.2022 05:04 3,6 C 2,8 C -0,6 C 61 % 1024,7 hPa 0,0 l/m 0 min 0 min 0 W/m 12,9 km/h (3 Bft) 97,87 %
10.03.2022 05:06 3,6 C 2,8 C -0,6 C 61 % 1024,7 hPa 0,0 l/m 0 min 0 min 0 W/m 12,9 km/h (3 Bft) 100,00 %
10.03.2022 05:08 3,6 C 2,8 C -0,6 C 61 % 1024,7 hPa 0,0 l/m 0 min 0 min 0 W/m 12,9 km/h (3 Bft) 100,00 %
10.03.2022 05:10 3,6 C 2,8 C -0,6 C 61 % 1024,7 hPa 0,0 l/m 0 min 0 min 0 W/m 12,9 km/h (3 Bft) 100,00 %
10.03.2022 05:12 3,6 C 2,8 C -0,6 C 61 % 1024,7 hPa 0,0 l/m 0 min 0 min 0 W/m 12,9 km/h (3 Bft) 100,00 %
10.03.2022 05:14 3,6 C 2,8 C -0,6 C 62 % 1024,6 hPa 0,0 l/m 0 min 0 min 0 W/m 12,9 km/h (3 Bft) 100,00 %
10.03.2022 05:16 3,5 C 2,8 C -0,6 C 62 % 1024,7 hPa 0,0 l/m 0 min 0 min 0 W/m 12,9 km/h (3 Bft) 97,87 %
10.03.2022 05:18 3,5 C 2,8 C -1,1 C 62 % 1024,7 hPa 0,0 l/m 0 min 0 min 0 W/m 6,4 km/h (2 Bft) 97,87 %
10.03.2022 05:20 3,5 C 2,8 C -1,1 C 62 % 1024,7 hPa 0,0 l/m 0 min 0 min 0 W/m 12,9 km/h (3 Bft) 97,87 %
10.03.2022 05:22 3,4 C 2,8 C -1,1 C 62 % 1024,7 hPa 0,0 l/m 0 min 0 min 0 W/m 12,9 km/h (3 Bft) 100,00 %
10.03.2022 05:24 3,4 C 2,8 C -1,1 C 62 % 1024,7 hPa 0,0 l/m 0 min 0 min 0 W/m 16,1 km/h (3 Bft) 95,74 %
10.03.2022 05:26 3,4 C 2,2 C -1,1 C 62 % 1024,8 hPa 0,0 l/m 0 min 0 min 0 W/m 12,9 km/h (3 Bft) 97,87 %
10.03.2022 05:28 3,4 C 2,2 C -1,1 C 62 % 1024,8 hPa 0,0 l/m 0 min 0 min 0 W/m 9,7 km/h (2 Bft) 97,87 %
10.03.2022 05:30 3,4 C 2,2 C -1,1 C 62 % 1024,7 hPa 0,0 l/m 0 min 0 min 0 W/m 12,9 km/h (3 Bft) 95,74 %
10.03.2022 05:32 3,3 C 2,2 C -1,1 C 62 % 1024,7 hPa 0,0 l/m 0 min 0 min 0 W/m 12,9 km/h (3 Bft) 97,87 %
10.03.2022 05:34 3,3 C 2,2 C -1,1 C 62 % 1024,7 hPa 0,0 l/m 0 min 0 min 0 W/m 6,4 km/h (2 Bft) 97,83 %
10.03.2022 05:36 3,3 C 2,2 C -1,1 C 63 % 1024,7 hPa 0,0 l/m 0 min 0 min 0 W/m 6,4 km/h (2 Bft) 97,87 %
10.03.2022 05:38 3,3 C 2,2 C -1,1 C 63 % 1024,7 hPa 0,0 l/m 0 min 0 min 0 W/m 6,4 km/h (2 Bft) 97,87 %
10.03.2022 05:40 3,2 C 2,2 C -1,1 C 63 % 1024,7 hPa 0,0 l/m 0 min 0 min 0 W/m 12,9 km/h (3 Bft) 95,74 %
10.03.2022 05:42 3,2 C 2,2 C -1,1 C 63 % 1024,8 hPa 0,0 l/m 0 min 0 min 0 W/m 6,4 km/h (2 Bft) 97,87 %
10.03.2022 05:44 3,2 C 2,2 C -1,1 C 63 % 1024,7 hPa 0,0 l/m 0 min 0 min 0 W/m 12,9 km/h (3 Bft) 97,87 %
10.03.2022 05:46 3,2 C 2,2 C -1,1 C 63 % 1024,8 hPa 0,0 l/m 0 min 0 min 0 W/m 6,4 km/h (2 Bft) 97,83 %
10.03.2022 05:48 3,1 C 2,2 C -1,1 C 63 % 1024,8 hPa 0,0 l/m 0 min 0 min 0 W/m 6,4 km/h (2 Bft) 97,87 %
10.03.2022 05:50 3,1 C 2,2 C -1,1 C 64 % 1024,8 hPa 0,0 l/m 0 min 0 min 0 W/m 6,4 km/h (2 Bft) 97,87 %
10.03.2022 05:52 3,1 C 2,2 C -1,7 C 64 % 1024,8 hPa 0,0 l/m 0 min 0 min 0 W/m 6,4 km/h (2 Bft) 97,87 %
10.03.2022 05:54 3,1 C 2,2 C -1,7 C 64 % 1024,8 hPa 0,0 l/m 0 min 0 min 0 W/m 12,9 km/h (3 Bft) 100,00 %
10.03.2022 05:56 3,0 C 2,2 C -1,7 C 64 % 1024,8 hPa 0,0 l/m 0 min 0 min 0 W/m 12,9 km/h (3 Bft) 100,00 %
10.03.2022 05:58 3,0 C 2,2 C -1,7 C 64 % 1024,8 hPa 0,0 l/m 0 min 0 min 0 W/m 6,4 km/h (2 Bft) 100,00 %
10.03.2022 06:00 2,9 C 1,7 C -1,7 C 64 % 1024,8 hPa 0,0 l/m 0 min 0 min 0 W/m 6,4 km/h (2 Bft) 100,00 %
10.03.2022 06:02 2,9 C 1,7 C -1,7 C 64 % 1024,8 hPa 0,0 l/m 0 min 0 min 0 W/m 6,4 km/h (2 Bft) 100,00 %
10.03.2022 06:04 2,9 C 1,7 C -1,7 C 64 % 1024,9 hPa 0,0 l/m 0 min 0 min 0 W/m 3,2 km/h (1 Bft) 97,87 %
10.03.2022 06:08 2,8 C 1,7 C -1,7 C 64 % 1024,8 hPa 0,0 l/m 0 min 0 min 0 W/m 6,4 km/h (2 Bft) 100,00 %
10.03.2022 06:10 2,8 C 1,7 C -1,7 C 64 % 1024,9 hPa 0,0 l/m 0 min 0 min 0 W/m 12,9 km/h (3 Bft) 100,00 %
10.03.2022 06:12 2,8 C 1,7 C -1,7 C 64 % 1024,8 hPa 0,0 l/m 0 min 0 min 0 W/m 12,9 km/h (3 Bft) 97,87 %
10.03.2022 06:14 2,8 C 1,7 C -1,7 C 64 % 1024,9 hPa 0,0 l/m 0 min 0 min 0 W/m 3,2 km/h (1 Bft) 97,87 %
10.03.2022 06:16 2,8 C 1,7 C -1,7 C 64 % 1024,8 hPa 0,0 l/m 0 min 0 min 0 W/m 12,9 km/h (3 Bft) 95,74 %
10.03.2022 06:18 2,7 C 1,7 C -1,7 C 64 % 1024,8 hPa 0,0 l/m 0 min 0 min 0 W/m 12,9 km/h (3 Bft) 100,00 %
10.03.2022 06:20 2,7 C 1,7 C -1,7 C 64 % 1024,9 hPa 0,0 l/m 0 min 0 min 0 W/m 6,4 km/h (2 Bft) 97,87 %
10.03.2022 06:22 2,7 C 1,7 C -1,7 C 65 % 1024,8 hPa 0,0 l/m 0 min 0 min 0 W/m 6,4 km/h (2 Bft) 97,83 %
10.03.2022 06:24 2,7 C 1,7 C -1,7 C 65 % 1024,8 hPa 0,0 l/m 0 min 0 min 0 W/m 6,4 km/h (2 Bft) 97,87 %
10.03.2022 06:26 2,7 C 1,7 C -1,7 C 65 % 1024,8 hPa 0,0 l/m 0 min 0 min 0 W/m 12,9 km/h (3 Bft) 97,87 %
10.03.2022 06:28 2,6 C 1,7 C -1,7 C 65 % 1024,9 hPa 0,0 l/m 0 min 0 min 0 W/m 6,4 km/h (2 Bft) 97,87 %
10.03.2022 06:30 2,6 C 1,7 C -1,7 C 65 % 1024,9 hPa 0,0 l/m 0 min 0 min 0 W/m 9,7 km/h (2 Bft) 97,87 %
10.03.2022 06:32 2,6 C 1,7 C -1,7 C 65 % 1024,9 hPa 0,0 l/m 0 min 0 min 0 W/m 6,4 km/h (2 Bft) 97,87 %
10.03.2022 06:34 2,6 C 1,7 C -1,7 C 65 % 1025,0 hPa 0,0 l/m 0 min 0 min 0 W/m 6,4 km/h (2 Bft) 97,83 %
10.03.2022 06:36 2,6 C 1,7 C -1,7 C 65 % 1024,9 hPa 0,0 l/m 0 min 0 min 0 W/m 6,4 km/h (2 Bft) 97,87 %
10.03.2022 06:38 2,6 C 1,7 C -1,7 C 65 % 1024,9 hPa 0,0 l/m 0 min 0 min 0 W/m 6,4 km/h (2 Bft) 97,87 %
10.03.2022 06:40 2,6 C 1,7 C -1,7 C 65 % 1024,9 hPa 0,0 l/m 0 min 0 min 0 W/m 12,9 km/h (3 Bft) 95,74 %
10.03.2022 06:42 2,6 C 1,7 C -1,7 C 65 % 1024,9 hPa 0,0 l/m 0 min 0 min 0 W/m 6,4 km/h (2 Bft) 97,87 %
10.03.2022 06:44 2,6 C 1,7 C -1,7 C 65 % 1024,9 hPa 0,0 l/m 0 min 0 min 0 W/m 12,9 km/h (3 Bft) 95,74 %
10.03.2022 06:46 2,6 C 1,7 C -1,7 C 65 % 1025,0 hPa 0,0 l/m 0 min 0 min 0 W/m 16,1 km/h (3 Bft) 97,83 %
10.03.2022 06:48 2,5 C 1,7 C -1,7 C 65 % 1025,0 hPa 0,0 l/m 0 min 0 min 0 W/m 12,9 km/h (3 Bft) 95,74 %
10.03.2022 06:50 2,5 C 1,7 C -1,7 C 65 % 1025,0 hPa 0,0 l/m 0 min 0 min 0 W/m 12,9 km/h (3 Bft) 97,87 %
10.03.2022 06:52 2,5 C 1,7 C -1,7 C 66 % 1025,0 hPa 0,0 l/m 0 min 0 min 0 W/m 16,1 km/h (3 Bft) 97,87 %
10.03.2022 06:54 2,5 C 1,7 C -1,7 C 66 % 1025,0 hPa 0,0 l/m 0 min 0 min 0 W/m 12,9 km/h (3 Bft) 97,87 %
10.03.2022 06:56 2,5 C 1,7 C -1,7 C 66 % 1025,0 hPa 0,0 l/m 0 min 0 min 0 W/m 12,9 km/h (3 Bft) 97,83 %
10.03.2022 06:58 2,6 C 1,7 C -1,7 C 66 % 1025,0 hPa 0,0 l/m 0 min 0 min 0 W/m 12,9 km/h (3 Bft) 97,87 %
10.03.2022 07:00 2,6 C 1,7 C -1,7 C 66 % 1025,0 hPa 0,0 l/m 0 min 0 min 3 W/m 12,9 km/h (3 Bft) 97,87 %
10.03.2022 07:02 2,6 C 2,2 C -1,7 C 66 % 1025,0 hPa 0,0 l/m 0 min 0 min 5 W/m 9,7 km/h (2 Bft) 97,87 %
10.03.2022 07:04 2,6 C 2,2 C -1,7 C 66 % 1025,0 hPa 0,0 l/m 0 min 0 min 5 W/m 12,9 km/h (3 Bft) 97,87 %
10.03.2022 07:06 2,6 C 2,2 C -1,7 C 66 % 1025,1 hPa 0,0 l/m 0 min 0 min 7 W/m 12,9 km/h (3 Bft) 97,87 %
10.03.2022 07:08 2,6 C 2,2 C -1,7 C 66 % 1025,1 hPa 0,0 l/m 0 min 0 min 8 W/m 16,1 km/h (3 Bft) 93,48 %
10.03.2022 07:10 2,6 C 2,2 C -1,7 C 66 % 1025,2 hPa 0,0 l/m 0 min 0 min 9 W/m 12,9 km/h (3 Bft) 93,62 %
10.03.2022 07:12 2,6 C 2,2 C -1,7 C 66 % 1025,1 hPa 0,0 l/m 0 min 0 min 10 W/m 12,9 km/h (3 Bft) 95,74 %
10.03.2022 07:14 2,6 C 2,2 C -1,7 C 66 % 1025,2 hPa 0,0 l/m 0 min 0 min 11 W/m 16,1 km/h (3 Bft) 97,87 %
10.03.2022 07:16 2,6 C 2,2 C -1,1 C 65 % 1025,2 hPa 0,0 l/m 0 min 0 min 12 W/m 16,1 km/h (3 Bft) 95,74 %
10.03.2022 07:18 2,7 C 2,2 C -1,1 C 65 % 1025,3 hPa 0,0 l/m 0 min 0 min 12 W/m 12,9 km/h (3 Bft) 95,74 %
10.03.2022 07:20 2,7 C 2,2 C -1,1 C 65 % 1025,3 hPa 0,0 l/m 0 min 0 min 13 W/m 12,9 km/h (3 Bft) 95,74 %
10.03.2022 07:22 2,7 C 2,2 C -1,1 C 65 % 1025,3 hPa 0,0 l/m 0 min 0 min 14 W/m 12,9 km/h (3 Bft) 95,65 %
10.03.2022 07:24 2,8 C 2,2 C -1,1 C 65 % 1025,3 hPa 0,0 l/m 0 min 0 min 16 W/m 12,9 km/h (3 Bft) 95,74 %
10.03.2022 07:26 2,8 C 2,2 C -1,1 C 65 % 1025,3 hPa 0,0 l/m 0 min 0 min 17 W/m 12,9 km/h (3 Bft) 93,62 %
10.03.2022 07:28 2,8 C 2,2 C -1,1 C 65 % 1025,3 hPa 0,0 l/m 0 min 0 min 18 W/m 12,9 km/h (3 Bft) 91,49 %
10.03.2022 07:30 2,8 C 2,2 C -1,1 C 65 % 1025,3 hPa 0,0 l/m 0 min 0 min 18 W/m 12,9 km/h (3 Bft) 56,82 %
10.03.2022 07:32 2,8 C 2,2 C -1,1 C 65 % 1025,3 hPa 0,0 l/m 0 min 0 min 19 W/m 16,1 km/h (3 Bft) 95,65 %
10.03.2022 07:34 2,8 C 2,2 C -1,1 C 65 % 1025,3 hPa 0,0 l/m 0 min 0 min 20 W/m 12,9 km/h (3 Bft) 95,74 %
10.03.2022 07:36 2,9 C 2,2 C -1,1 C 65 % 1025,3 hPa 0,0 l/m 0 min 0 min 21 W/m 19,3 km/h (3 Bft) 95,74 %
10.03.2022 07:38 2,9 C 2,8 C -1,1 C 65 % 1025,2 hPa 0,0 l/m 0 min 0 min 21 W/m 16,1 km/h (3 Bft) 95,74 %
10.03.2022 07:40 2,9 C 2,8 C -1,1 C 65 % 1025,3 hPa 0,0 l/m 0 min 0 min 23 W/m 19,3 km/h (3 Bft) 97,87 %
10.03.2022 07:42 3,0 C 2,8 C -1,1 C 65 % 1025,3 hPa 0,0 l/m 0 min 0 min 23 W/m 22,5 km/h (4 Bft) 97,87 %
10.03.2022 07:44 3,1 C 2,8 C -1,1 C 64 % 1025,3 hPa 0,0 l/m 0 min 0 min 24 W/m 9,7 km/h (2 Bft) 97,87 %
10.03.2022 07:46 3,1 C 2,8 C -1,1 C 64 % 1025,3 hPa 0,0 l/m 0 min 0 min 25 W/m 12,9 km/h (3 Bft) 95,65 %
10.03.2022 07:48 3,1 C 2,8 C -1,1 C 64 % 1025,3 hPa 0,0 l/m 0 min 0 min 26 W/m 6,4 km/h (2 Bft) 97,87 %
10.03.2022 07:50 3,1 C 2,8 C -1,1 C 64 % 1025,3 hPa 0,0 l/m 0 min 0 min 26 W/m 6,4 km/h (2 Bft) 97,87 %
10.03.2022 07:52 3,1 C 2,8 C -1,1 C 64 % 1025,4 hPa 0,0 l/m 0 min 0 min 27 W/m 12,9 km/h (3 Bft) 97,87 %
10.03.2022 07:54 3,1 C 2,8 C -1,1 C 64 % 1025,4 hPa 0,0 l/m 0 min 0 min 28 W/m 12,9 km/h (3 Bft) 97,87 %
10.03.2022 07:56 3,1 C 2,8 C -1,1 C 64 % 1025,4 hPa 0,0 l/m 0 min 0 min 29 W/m 12,9 km/h (3 Bft) 100,00 %
10.03.2022 07:58 3,1 C 2,8 C -1,1 C 64 % 1025,3 hPa 0,0 l/m 0 min 0 min 30 W/m 16,1 km/h (3 Bft) 97,87 %
10.03.2022 08:00 3,1 C 2,8 C -1,1 C 64 % 1025,4 hPa 0,0 l/m 0 min 0 min 30 W/m 12,9 km/h (3 Bft) 100,00 %
10.03.2022 08:02 3,1 C 2,8 C -1,1 C 65 % 1025,3 hPa 0,0 l/m 0 min 0 min 32 W/m 12,9 km/h (3 Bft) 97,87 %
10.03.2022 08:04 3,1 C 2,8 C -1,1 C 65 % 1025,3 hPa 0,0 l/m 0 min 0 min 32 W/m 12,9 km/h (3 Bft) 100,00 %
10.03.2022 08:06 3,2 C 2,8 C -1,1 C 65 % 1025,4 hPa 0,0 l/m 0 min 0 min 33 W/m 12,9 km/h (3 Bft) 100,00 %
10.03.2022 08:08 3,2 C 2,8 C -1,1 C 65 % 1025,4 hPa 0,0 l/m 0 min 0 min 33 W/m 12,9 km/h (3 Bft) 97,83 %
10.03.2022 08:10 3,2 C 2,8 C -1,1 C 65 % 1025,4 hPa 0,0 l/m 0 min 0 min 34 W/m 12,9 km/h (3 Bft) 100,00 %
10.03.2022 08:12 3,2 C 2,8 C -0,6 C 65 % 1025,4 hPa 0,0 l/m 0 min 0 min 35 W/m 12,9 km/h (3 Bft) 97,87 %
10.03.2022 08:14 3,3 C 2,8 C -0,6 C 65 % 1025,4 hPa 0,0 l/m 0 min 0 min 35 W/m 6,4 km/h (2 Bft) 100,00 %
10.03.2022 08:16 3,3 C 3,3 C -0,6 C 65 % 1025,4 hPa 0,0 l/m 0 min 0 min 37 W/m 12,9 km/h (3 Bft) 97,87 %
10.03.2022 08:18 3,3 C 3,3 C -0,6 C 65 % 1025,4 hPa 0,0 l/m 0 min 0 min 37 W/m 12,9 km/h (3 Bft) 100,00 %
10.03.2022 08:20 3,4 C 3,3 C -0,6 C 65 % 1025,4 hPa 0,0 l/m 0 min 0 min 38 W/m 12,9 km/h (3 Bft) 100,00 %
10.03.2022 08:22 3,4 C 3,3 C -0,6 C 65 % 1025,4 hPa 0,0 l/m 0 min 0 min 39 W/m 6,4 km/h (2 Bft) 93,62 %
10.03.2022 08:24 3,5 C 3,3 C -0,6 C 65 % 1025,4 hPa 0,0 l/m 0 min 0 min 39 W/m 16,1 km/h (3 Bft) 62,22 %
10.03.2022 08:26 3,6 C 3,3 C -0,6 C 65 % 1025,4 hPa 0,0 l/m 0 min 0 min 39 W/m 16,1 km/h (3 Bft) 100,00 %
10.03.2022 08:28 3,6 C 3,3 C -0,6 C 65 % 1025,5 hPa 0,0 l/m 0 min 0 min 40 W/m 12,9 km/h (3 Bft) 100,00 %
10.03.2022 08:30 3,7 C 3,9 C 0,0 C 64 % 1025,4 hPa 0,0 l/m 0 min 0 min 40 W/m 16,1 km/h (3 Bft) 97,87 %
10.03.2022 08:32 3,7 C 3,9 C 0,0 C 64 % 1025,5 hPa 0,0 l/m 0 min 0 min 40 W/m 6,4 km/h (2 Bft) 97,83 %
10.03.2022 08:34 3,8 C 3,9 C 0,0 C 64 % 1025,5 hPa 0,0 l/m 0 min 0 min 42 W/m 16,1 km/h (3 Bft) 100,00 %
10.03.2022 08:36 3,9 C 3,9 C 0,0 C 64 % 1025,5 hPa 0,0 l/m 0 min 0 min 42 W/m 16,1 km/h (3 Bft) 100,00 %
10.03.2022 08:38 4,0 C 3,9 C 0,0 C 64 % 1025,5 hPa 0,0 l/m 0 min 0 min 42 W/m 9,7 km/h (2 Bft) 100,00 %
10.03.2022 08:40 4,1 C 4,4 C 0,0 C 64 % 1025,5 hPa 0,0 l/m 0 min 0 min 42 W/m 12,9 km/h (3 Bft) 97,87 %
10.03.2022 08:42 4,2 C 4,4 C 0,0 C 64 % 1025,5 hPa 0,0 l/m 0 min 0 min 44 W/m 12,9 km/h (3 Bft) 100,00 %
10.03.2022 08:44 4,3 C 4,4 C 0,6 C 63 % 1025,5 hPa 0,0 l/m 0 min 0 min 66 W/m 12,9 km/h (3 Bft) 100,00 %
10.03.2022 08:46 4,3 C 4,4 C 0,6 C 64 % 1025,5 hPa 0,0 l/m 2 min 0 min 190 W/m 12,9 km/h (3 Bft) 97,87 %
10.03.2022 08:48 4,4 C 4,4 C 0,6 C 63 % 1025,5 hPa 0,0 l/m 2 min 0 min 228 W/m 16,1 km/h (3 Bft) 95,74 %
10.03.2022 08:50 4,6 C 5,0 C 0,6 C 63 % 1025,5 hPa 0,0 l/m 2 min 0 min 173 W/m 12,9 km/h (3 Bft) 97,87 %
10.03.2022 08:52 4,7 C 5,6 C 0,6 C 63 % 1025,5 hPa 0,0 l/m 2 min 0 min 230 W/m 19,3 km/h (3 Bft) 95,74 %
10.03.2022 08:54 4,8 C 6,7 C 1,1 C 63 % 1025,6 hPa 0,0 l/m 2 min 0 min 262 W/m 16,1 km/h (3 Bft) 97,87 %
10.03.2022 08:56 5,0 C 7,8 C 1,1 C 62 % 1025,5 hPa 0,0 l/m 2 min 0 min 269 W/m 12,9 km/h (3 Bft) 95,65 %
10.03.2022 08:58 5,2 C 8,3 C 1,1 C 62 % 1025,6 hPa 0,0 l/m 2 min 0 min 276 W/m 12,9 km/h (3 Bft) 97,87 %
10.03.2022 09:00 5,4 C 8,9 C 1,7 C 62 % 1025,6 hPa 0,0 l/m 2 min 0 min 276 W/m 16,1 km/h (3 Bft) 95,74 %
10.03.2022 09:02 5,6 C 8,9 C 1,7 C 61 % 1025,5 hPa 0,0 l/m 2 min 0 min 285 W/m 16,1 km/h (3 Bft) 97,87 %
10.03.2022 09:04 5,8 C 8,9 C 1,7 C 61 % 1025,5 hPa 0,0 l/m 2 min 0 min 286 W/m 16,1 km/h (3 Bft) 95,74 %
10.03.2022 09:06 5,9 C 8,3 C 2,2 C 60 % 1025,5 hPa 0,0 l/m 2 min 0 min 252 W/m 12,9 km/h (3 Bft) 95,65 %
10.03.2022 09:08 6,2 C 8,3 C 2,2 C 60 % 1025,5 hPa 0,0 l/m 2 min 0 min 222 W/m 12,9 km/h (3 Bft) 93,62 %
10.03.2022 09:10 6,3 C 8,3 C 2,2 C 59 % 1025,5 hPa 0,0 l/m 2 min 0 min 279 W/m 16,1 km/h (3 Bft) 93,62 %
10.03.2022 09:12 6,5 C 8,3 C 2,2 C 59 % 1025,5 hPa 0,0 l/m 2 min 0 min 314 W/m 16,1 km/h (3 Bft) 93,62 %
10.03.2022 09:14 6,6 C 8,3 C 2,2 C 58 % 1025,5 hPa 0,0 l/m 2 min 0 min 306 W/m 19,3 km/h (3 Bft) 95,74 %
10.03.2022 09:16 6,7 C 8,3 C 2,2 C 58 % 1025,5 hPa 0,0 l/m 2 min 0 min 266 W/m 19,3 km/h (3 Bft) 95,74 %
10.03.2022 09:18 6,8 C 8,3 C 2,8 C 57 % 1025,5 hPa 0,0 l/m 2 min 0 min 252 W/m 16,1 km/h (3 Bft) 95,65 %
10.03.2022 09:20 7,0 C 8,3 C 2,8 C 57 % 1025,4 hPa 0,0 l/m 2 min 0 min 269 W/m 12,9 km/h (3 Bft) 95,74 %
10.03.2022 09:22 7,1 C 8,3 C 2,8 C 57 % 1025,4 hPa 0,0 l/m 2 min 0 min 340 W/m 16,1 km/h (3 Bft) 95,74 %
10.03.2022 09:24 7,2 C 8,3 C 2,8 C 57 % 1025,4 hPa 0,0 l/m 2 min 0 min 346 W/m 19,3 km/h (3 Bft) 95,74 %
10.03.2022 09:26 7,3 C 8,3 C 2,8 C 56 % 1025,4 hPa 0,0 l/m 2 min 0 min 345 W/m 12,9 km/h (3 Bft) 95,74 %
10.03.2022 09:28 7,4 C 8,3 C 2,8 C 56 % 1025,4 hPa 0,0 l/m 2 min 0 min 300 W/m 12,9 km/h (3 Bft) 95,74 %
10.03.2022 09:30 7,5 C 8,9 C 2,8 C 56 % 1025,5 hPa 0,0 l/m 2 min 0 min 245 W/m 16,1 km/h (3 Bft) 93,48 %
10.03.2022 09:32 7,6 C 9,4 C 3,3 C 56 % 1025,4 hPa 0,0 l/m 2 min 0 min 304 W/m 12,9 km/h (3 Bft) 95,74 %
10.03.2022 09:34 7,7 C 9,4 C 3,3 C 56 % 1025,4 hPa 0,0 l/m 2 min 0 min 308 W/m 12,9 km/h (3 Bft) 95,74 %
10.03.2022 09:36 7,8 C 10,0 C 3,3 C 55 % 1025,4 hPa 0,0 l/m 2 min 0 min 362 W/m 9,7 km/h (2 Bft) 95,74 %
10.03.2022 09:38 7,9 C 10,0 C 3,3 C 55 % 1025,3 hPa 0,0 l/m 2 min 0 min 249 W/m 9,7 km/h (2 Bft) 95,74 %
10.03.2022 09:40 7,9 C 9,4 C 3,3 C 55 % 1025,3 hPa 0,0 l/m 0 min 0 min 130 W/m 19,3 km/h (3 Bft) 95,74 %
10.03.2022 09:42 8,1 C 9,4 C 3,3 C 54 % 1025,3 hPa 0,0 l/m 0 min 0 min 188 W/m 19,3 km/h (3 Bft) 91,30 %
10.03.2022 09:44 8,1 C 9,4 C 3,3 C 54 % 1025,2 hPa 0,0 l/m 0 min 0 min 148 W/m 16,1 km/h (3 Bft) 91,49 %
10.03.2022 09:46 8,2 C 10,0 C 3,9 C 54 % 1025,2 hPa 0,0 l/m 2 min 0 min 246 W/m 19,3 km/h (3 Bft) 93,62 %
10.03.2022 09:48 8,3 C 10,0 C 3,9 C 54 % 1025,2 hPa 0,0 l/m 2 min 0 min 216 W/m 16,1 km/h (3 Bft) 95,74 %
10.03.2022 09:50 8,3 C 10,0 C 3,9 C 54 % 1025,2 hPa 0,0 l/m 0 min 0 min 159 W/m 12,9 km/h (3 Bft) 93,62 %
10.03.2022 09:52 8,4 C 10,0 C 3,9 C 54 % 1025,2 hPa 0,0 l/m 2 min 0 min 253 W/m 12,9 km/h (3 Bft) 95,74 %
10.03.2022 09:54 8,5 C 10,0 C 3,9 C 54 % 1025,2 hPa 0,0 l/m 0 min 0 min 155 W/m 16,1 km/h (3 Bft) 95,65 %
10.03.2022 09:56 8,6 C 10,0 C 4,4 C 54 % 1025,2 hPa 0,0 l/m 0 min 0 min 197 W/m 19,3 km/h (3 Bft) 95,74 %
10.03.2022 09:58 8,6 C 10,0 C 5,0 C 54 % 1025,1 hPa 0,0 l/m 2 min 0 min 277 W/m 19,3 km/h (3 Bft) 95,74 %
10.03.2022 10:00 8,7 C 10,0 C 5,0 C 53 % 1025,1 hPa 0,0 l/m 2 min 0 min 334 W/m 22,5 km/h (4 Bft) 97,87 %
10.03.2022 10:02 8,8 C 10,0 C 5,0 C 53 % 1025,1 hPa 0,0 l/m 2 min 0 min 282 W/m 16,1 km/h (3 Bft) 91,49 %
10.03.2022 10:04 8,8 C 10,0 C 5,6 C 53 % 1025,1 hPa 0,0 l/m 2 min 0 min 339 W/m 16,1 km/h (3 Bft) 95,65 %
10.03.2022 10:06 8,9 C 10,6 C 5,6 C 53 % 1025,1 hPa 0,0 l/m 2 min 0 min 288 W/m 19,3 km/h (3 Bft) 95,74 %
10.03.2022 10:08 8,9 C 11,1 C 6,1 C 53 % 1025,1 hPa 0,0 l/m 2 min 0 min 298 W/m 12,9 km/h (3 Bft) 95,74 %
10.03.2022 10:10 9,0 C 11,1 C 6,7 C 52 % 1025,1 hPa 0,0 l/m 2 min 0 min 351 W/m 22,5 km/h (4 Bft) 93,62 %
10.03.2022 10:12 9,1 C 11,1 C 6,7 C 52 % 1025,1 hPa 0,0 l/m 2 min 0 min 347 W/m 19,3 km/h (3 Bft) 95,83 %
10.03.2022 10:14 9,2 C 11,1 C 7,8 C 52 % 1025,1 hPa 0,0 l/m 2 min 0 min 323 W/m 19,3 km/h (3 Bft) 96,23 %
10.03.2022 10:16 9,2 C 11,1 C 8,3 C 52 % 1025,1 hPa 0,0 l/m 2 min 0 min 221 W/m 16,1 km/h (3 Bft) 91,49 %
10.03.2022 10:18 9,3 C 11,7 C 8,9 C 52 % 1025,1 hPa 0,0 l/m 2 min 0 min 306 W/m 19,3 km/h (3 Bft) 95,74 %
10.03.2022 10:20 9,4 C 11,7 C 9,4 C 52 % 1025,1 hPa 0,0 l/m 2 min 0 min 255 W/m 12,9 km/h (3 Bft) 97,37 %
10.03.2022 10:22 9,5 C 12,2 C 9,4 C 52 % 1025,1 hPa 0,0 l/m 2 min 0 min 346 W/m 19,3 km/h (3 Bft) 97,87 %
10.03.2022 10:24 9,6 C 12,8 C 10,0 C 52 % 1025,0 hPa 0,0 l/m 0 min 0 min 120 W/m 12,9 km/h (3 Bft) 97,96 %
10.03.2022 10:26 9,7 C 13,9 C 10,0 C 52 % 1025,0 hPa 0,0 l/m 0 min 0 min 138 W/m 16,1 km/h (3 Bft) 97,87 %
10.03.2022 10:28 9,8 C 14,4 C 10,6 C 52 % 1025,0 hPa 0,0 l/m 0 min 0 min 186 W/m 9,7 km/h (2 Bft) 97,83 %
10.03.2022 10:30 9,9 C 14,4 C 10,0 C 52 % 1025,0 hPa 0,0 l/m 0 min 0 min 188 W/m 16,1 km/h (3 Bft) 97,87 %
10.03.2022 10:32 10,0 C 14,4 C 10,6 C 51 % 1025,0 hPa 0,0 l/m 2 min 0 min 440 W/m 19,3 km/h (3 Bft) 93,62 %
10.03.2022 10:34 10,1 C 15,0 C 10,6 C 51 % 1025,0 hPa 0,0 l/m 2 min 0 min 442 W/m 9,7 km/h (2 Bft) 97,87 %
10.03.2022 10:36 10,2 C 15,6 C 11,1 C 51 % 1025,0 hPa 0,0 l/m 2 min 0 min 507 W/m 19,3 km/h (3 Bft) 97,87 %
10.03.2022 10:38 10,3 C 15,6 C 11,7 C 51 % 1024,9 hPa 0,0 l/m 2 min 0 min 514 W/m 12,9 km/h (3 Bft) 97,87 %
10.03.2022 10:40 10,4 C 15,6 C 11,7 C 50 % 1024,9 hPa 0,0 l/m 2 min 0 min 519 W/m 16,1 km/h (3 Bft) 97,83 %
10.03.2022 10:42 10,6 C 16,1 C 12,2 C 50 % 1024,8 hPa 0,0 l/m 2 min 0 min 523 W/m 6,4 km/h (2 Bft) 97,87 %
10.03.2022 10:44 10,7 C 16,1 C 12,2 C 50 % 1024,8 hPa 0,0 l/m 2 min 0 min 527 W/m 16,1 km/h (3 Bft) 97,87 %
10.03.2022 10:46 10,8 C 15,6 C 12,2 C 50 % 1024,8 hPa 0,0 l/m 2 min 0 min 531 W/m 16,1 km/h (3 Bft) 97,87 %
10.03.2022 10:48 10,9 C 15,0 C 12,2 C 49 % 1024,7 hPa 0,0 l/m 2 min 0 min 534 W/m 16,1 km/h (3 Bft) 97,87 %
10.03.2022 10:50 11,0 C 15,6 C 12,2 C 49 % 1024,8 hPa 0,0 l/m 2 min 0 min 538 W/m 19,3 km/h (3 Bft) 97,87 %
10.03.2022 10:52 11,1 C 16,1 C 12,8 C 49 % 1024,7 hPa 0,0 l/m 2 min 0 min 542 W/m 16,1 km/h (3 Bft) 97,83 %
10.03.2022 10:54 11,2 C 16,1 C 12,2 C 49 % 1024,7 hPa 0,0 l/m 2 min 0 min 545 W/m 19,3 km/h (3 Bft) 97,87 %
10.03.2022 10:56 11,2 C 16,1 C 12,8 C 49 % 1024,7 hPa 0,0 l/m 2 min 0 min 547 W/m 19,3 km/h (3 Bft) 97,87 %
10.03.2022 10:58 11,3 C 16,7 C 12,8 C 48 % 1024,7 hPa 0,0 l/m 2 min 0 min 550 W/m 19,3 km/h (3 Bft) 97,87 %
10.03.2022 11:00 11,3 C 16,1 C 12,8 C 48 % 1024,7 hPa 0,0 l/m 2 min 0 min 555 W/m 32,2 km/h (5 Bft) 97,87 %
10.03.2022 11:02 11,4 C 15,6 C 12,2 C 47 % 1024,8 hPa 0,0 l/m 2 min 0 min 558 W/m 22,5 km/h (4 Bft) 93,48 %
10.03.2022 11:04 11,5 C 16,1 C 12,2 C 47 % 1024,8 hPa 0,0 l/m 2 min 0 min 560 W/m 19,3 km/h (3 Bft) 95,74 %
10.03.2022 11:06 11,6 C 16,1 C 12,8 C 47 % 1024,8 hPa 0,0 l/m 2 min 0 min 562 W/m 16,1 km/h (3 Bft) 97,87 %
10.03.2022 11:08 11,6 C 16,7 C 12,8 C 47 % 1024,7 hPa 0,0 l/m 2 min 0 min 565 W/m 25,7 km/h (4 Bft) 95,74 %
10.03.2022 11:10 11,7 C 16,7 C 12,8 C 47 % 1024,7 hPa 0,0 l/m 2 min 0 min 570 W/m 19,3 km/h (3 Bft) 97,87 %
10.03.2022 11:12 11,8 C 16,7 C 12,8 C 46 % 1024,7 hPa 0,0 l/m 2 min 0 min 571 W/m 16,1 km/h (3 Bft) 97,87 %
10.03.2022 11:14 11,8 C 16,7 C 12,8 C 46 % 1024,7 hPa 0,0 l/m 2 min 0 min 574 W/m 16,1 km/h (3 Bft) 95,65 %
10.03.2022 11:16 11,9 C 17,2 C 13,3 C 46 % 1024,7 hPa 0,0 l/m 2 min 0 min 577 W/m 22,5 km/h (4 Bft) 95,74 %
10.03.2022 11:18 12,1 C 17,2 C 13,3 C 46 % 1024,7 hPa 0,0 l/m 2 min 0 min 579 W/m 16,1 km/h (3 Bft) 95,74 %
10.03.2022 11:20 12,2 C 16,7 C 13,3 C 46 % 1024,7 hPa 0,0 l/m 2 min 0 min 581 W/m 19,3 km/h (3 Bft) 95,74 %
10.03.2022 11:22 12,2 C 16,7 C 13,3 C 45 % 1024,7 hPa 0,0 l/m 2 min 0 min 584 W/m 22,5 km/h (4 Bft) 95,74 %
10.03.2022 11:24 12,3 C 17,2 C 13,3 C 45 % 1024,7 hPa 0,0 l/m 2 min 0 min 586 W/m 16,1 km/h (3 Bft) 95,74 %
10.03.2022 11:26 12,4 C 17,8 C 13,9 C 46 % 1024,7 hPa 0,0 l/m 2 min 0 min 590 W/m 12,9 km/h (3 Bft) 93,48 %
10.03.2022 11:28 12,4 C 17,2 C 13,9 C 45 % 1024,6 hPa 0,0 l/m 2 min 0 min 591 W/m 19,3 km/h (3 Bft) 93,62 %
10.03.2022 11:30 12,6 C 17,2 C 13,9 C 45 % 1024,7 hPa 0,0 l/m 2 min 0 min 594 W/m 22,5 km/h (4 Bft) 95,74 %
10.03.2022 11:32 12,6 C 18,3 C 14,4 C 46 % 1024,7 hPa 0,0 l/m 2 min 0 min 592 W/m 16,1 km/h (3 Bft) 95,74 %
10.03.2022 11:34 12,7 C 17,8 C 14,4 C 45 % 1024,7 hPa 0,0 l/m 2 min 0 min 591 W/m 29,0 km/h (5 Bft) 93,62 %
10.03.2022 11:36 12,8 C 17,8 C 14,4 C 45 % 1024,7 hPa 0,0 l/m 2 min 0 min 601 W/m 19,3 km/h (3 Bft) 95,74 %
10.03.2022 11:38 12,8 C 17,8 C 14,4 C 45 % 1024,6 hPa 0,0 l/m 2 min 0 min 600 W/m 25,7 km/h (4 Bft) 93,48 %
10.03.2022 11:40 12,9 C 17,2 C 13,9 C 45 % 1024,6 hPa 0,0 l/m 2 min 0 min 604 W/m 19,3 km/h (3 Bft) 95,74 %
10.03.2022 11:42 13,0 C 17,8 C 13,9 C 45 % 1024,7 hPa 0,0 l/m 2 min 0 min 606 W/m 16,1 km/h (3 Bft) 95,74 %
10.03.2022 11:44 13,1 C 17,8 C 13,9 C 45 % 1024,6 hPa 0,0 l/m 2 min 0 min 607 W/m 22,5 km/h (4 Bft) 97,87 %
10.03.2022 11:46 13,1 C 17,8 C 13,3 C 44 % 1024,6 hPa 0,0 l/m 2 min 0 min 609 W/m 22,5 km/h (4 Bft) 100,00 %
10.03.2022 11:48 13,2 C 17,8 C 13,3 C 44 % 1024,6 hPa 0,0 l/m 2 min 0 min 611 W/m 16,1 km/h (3 Bft) 97,87 %
10.03.2022 11:50 13,2 C 17,2 C 12,8 C 44 % 1024,6 hPa 0,0 l/m 2 min 0 min 612 W/m 19,3 km/h (3 Bft) 97,83 %
10.03.2022 11:52 13,3 C 16,7 C 12,8 C 44 % 1024,5 hPa 0,0 l/m 2 min 0 min 613 W/m 16,1 km/h (3 Bft) 97,87 %
10.03.2022 11:54 13,4 C 17,2 C 12,8 C 44 % 1024,5 hPa 0,0 l/m 2 min 0 min 614 W/m 22,5 km/h (4 Bft) 97,87 %
10.03.2022 11:56 13,5 C 17,2 C 12,8 C 44 % 1024,6 hPa 0,0 l/m 2 min 0 min 616 W/m 16,1 km/h (3 Bft) 97,87 %
10.03.2022 11:58 13,6 C 16,7 C 12,2 C 44 % 1024,5 hPa 0,0 l/m 2 min 0 min 574 W/m 19,3 km/h (3 Bft) 97,87 %
10.03.2022 12:00 13,6 C 16,1 C 12,2 C 44 % 1024,4 hPa 0,0 l/m 2 min 0 min 458 W/m 38,6 km/h (5 Bft) 100,00 %
10.03.2022 12:02 13,6 C 15,6 C 12,2 C 44 % 1024,4 hPa 0,0 l/m 2 min 0 min 449 W/m 19,3 km/h (3 Bft) 97,83 %
10.03.2022 12:04 13,6 C 15,6 C 12,2 C 44 % 1024,4 hPa 0,0 l/m 2 min 0 min 339 W/m 16,1 km/h (3 Bft) 97,87 %
10.03.2022 12:08 13,6 C 15,6 C 12,2 C 44 % 1024,3 hPa 0,0 l/m 4 min 0 min 341 W/m 16,1 km/h (3 Bft) 95,74 %
10.03.2022 12:10 13,7 C 15,0 C 12,2 C 44 % 1024,3 hPa 0,0 l/m 2 min 0 min 442 W/m 19,3 km/h (3 Bft) 97,87 %
10.03.2022 12:12 13,7 C 14,4 C 11,7 C 44 % 1024,2 hPa 0,0 l/m 2 min 0 min 443 W/m 22,5 km/h (4 Bft) 97,87 %
10.03.2022 12:14 13,7 C 14,4 C 11,7 C 44 % 1024,2 hPa 0,0 l/m 2 min 0 min 334 W/m 25,7 km/h (4 Bft) 95,65 %
10.03.2022 12:16 13,8 C 14,4 C 11,7 C 45 % 1024,2 hPa 0,0 l/m 2 min 0 min 290 W/m 16,1 km/h (3 Bft) 97,87 %
10.03.2022 12:18 13,8 C 14,4 C 11,7 C 44 % 1024,2 hPa 0,0 l/m 2 min 0 min 331 W/m 19,3 km/h (3 Bft) 97,87 %
10.03.2022 12:20 13,8 C 14,4 C 12,2 C 45 % 1024,1 hPa 0,0 l/m 2 min 0 min 411 W/m 19,3 km/h (3 Bft) 97,87 %
10.03.2022 12:22 13,8 C 14,4 C 12,2 C 45 % 1024,2 hPa 0,0 l/m 2 min 0 min 443 W/m 22,5 km/h (4 Bft) 95,74 %
10.03.2022 12:24 13,8 C 15,0 C 12,8 C 45 % 1024,1 hPa 0,0 l/m 2 min 0 min 369 W/m 19,3 km/h (3 Bft) 95,74 %
10.03.2022 12:26 13,9 C 15,0 C 12,2 C 45 % 1024,1 hPa 0,0 l/m 2 min 0 min 410 W/m 19,3 km/h (3 Bft) 95,65 %
10.03.2022 12:28 13,9 C 15,6 C 12,2 C 45 % 1024,1 hPa 0,0 l/m 2 min 0 min 532 W/m 19,3 km/h (3 Bft) 95,74 %
10.03.2022 12:30 13,9 C 15,6 C 11,7 C 45 % 1024,1 hPa 0,0 l/m 2 min 0 min 534 W/m 16,1 km/h (3 Bft) 95,74 %
10.03.2022 12:32 14,0 C 15,6 C 11,7 C 45 % 1024,0 hPa 0,0 l/m 2 min 0 min 597 W/m 19,3 km/h (3 Bft) 95,74 %
10.03.2022 12:34 14,1 C 16,1 C 12,2 C 45 % 1024,1 hPa 0,0 l/m 2 min 0 min 634 W/m 16,1 km/h (3 Bft) 95,74 %
10.03.2022 12:36 14,1 C 16,1 C 12,2 C 44 % 1024,1 hPa 0,0 l/m 2 min 0 min 635 W/m 22,5 km/h (4 Bft) 97,87 %
10.03.2022 12:38 14,3 C 16,1 C 11,7 C 44 % 1024,0 hPa 0,0 l/m 2 min 0 min 636 W/m 12,9 km/h (3 Bft) 97,83 %
10.03.2022 12:40 14,3 C 16,7 C 11,1 C 45 % 1024,0 hPa 0,0 l/m 2 min 0 min 635 W/m 16,1 km/h (3 Bft) 97,87 %
10.03.2022 12:42 14,3 C 17,2 C 11,1 C 45 % 1024,0 hPa 0,0 l/m 2 min 0 min 635 W/m 16,1 km/h (3 Bft) 97,87 %
10.03.2022 12:44 14,3 C 17,8 C 11,1 C 45 % 1023,9 hPa 0,0 l/m 2 min 0 min 635 W/m 19,3 km/h (3 Bft) 95,74 %
10.03.2022 12:46 14,4 C 18,3 C 11,1 C 45 % 1024,0 hPa 0,0 l/m 2 min 0 min 634 W/m 19,3 km/h (3 Bft) 97,87 %
10.03.2022 12:48 14,5 C 18,3 C 11,1 C 44 % 1023,9 hPa 0,0 l/m 2 min 0 min 636 W/m 19,3 km/h (3 Bft) 97,87 %
10.03.2022 12:50 14,6 C 18,9 C 11,1 C 44 % 1023,9 hPa 0,0 l/m 2 min 0 min 639 W/m 19,3 km/h (3 Bft) 95,65 %
10.03.2022 12:52 14,7 C 19,4 C 11,1 C 44 % 1023,8 hPa 0,0 l/m 2 min 0 min 640 W/m 19,3 km/h (3 Bft) 95,74 %
10.03.2022 12:54 14,8 C 20,0 C 11,1 C 43 % 1023,8 hPa 0,0 l/m 2 min 0 min 637 W/m 16,1 km/h (3 Bft) 95,74 %
10.03.2022 12:56 14,9 C 20,6 C 11,1 C 43 % 1023,8 hPa 0,0 l/m 2 min 0 min 636 W/m 19,3 km/h (3 Bft) 97,87 %
10.03.2022 12:58 15,0 C 20,6 C 11,1 C 43 % 1023,8 hPa 0,0 l/m 2 min 0 min 636 W/m 22,5 km/h (4 Bft) 97,87 %
10.03.2022 13:00 15,1 C 21,7 C 11,1 C 43 % 1023,8 hPa 0,0 l/m 2 min 0 min 635 W/m 16,1 km/h (3 Bft) 95,74 %
10.03.2022 13:02 15,2 C 21,1 C 11,1 C 43 % 1023,8 hPa 0,0 l/m 2 min 0 min 634 W/m 16,1 km/h (3 Bft) 97,83 %
10.03.2022 13:04 15,3 C 20,6 C 11,1 C 42 % 1023,8 hPa 0,0 l/m 2 min 0 min 634 W/m 25,7 km/h (4 Bft) 95,74 %
10.03.2022 13:06 15,4 C 21,1 C 11,1 C 42 % 1023,8 hPa 0,0 l/m 2 min 0 min 632 W/m 22,5 km/h (4 Bft) 97,87 %
10.03.2022 13:08 15,5 C 21,1 C 11,1 C 42 % 1023,8 hPa 0,0 l/m 2 min 0 min 630 W/m 19,3 km/h (3 Bft) 97,87 %
10.03.2022 13:10 15,6 C 21,7 C 11,1 C 42 % 1023,8 hPa 0,0 l/m 2 min 0 min 631 W/m 12,9 km/h (3 Bft) 97,87 %
10.03.2022 13:12 15,6 C 22,2 C 11,1 C 42 % 1023,8 hPa 0,0 l/m 2 min 0 min 631 W/m 12,9 km/h (3 Bft) 95,74 %
10.03.2022 13:14 15,7 C 22,2 C 11,1 C 41 % 1023,7 hPa 0,0 l/m 2 min 0 min 632 W/m 16,1 km/h (3 Bft) 97,83 %
10.03.2022 13:16 15,7 C 22,2 C 11,1 C 41 % 1023,7 hPa 0,0 l/m 2 min 0 min 634 W/m 16,1 km/h (3 Bft) 97,87 %
10.03.2022 13:18 15,8 C 21,7 C 11,1 C 41 % 1023,7 hPa 0,0 l/m 2 min 0 min 632 W/m 16,1 km/h (3 Bft) 97,87 %
10.03.2022 13:20 15,9 C 22,8 C 11,7 C 41 % 1023,6 hPa 0,0 l/m 2 min 0 min 628 W/m 12,9 km/h (3 Bft) 97,87 %
10.03.2022 13:22 16,0 C 22,8 C 11,7 C 41 % 1023,6 hPa 0,0 l/m 2 min 0 min 629 W/m 19,3 km/h (3 Bft) 97,87 %
10.03.2022 13:24 16,1 C 22,2 C 11,7 C 41 % 1023,5 hPa 0,0 l/m 2 min 0 min 627 W/m 22,5 km/h (4 Bft) 97,87 %
10.03.2022 13:26 16,1 C 21,7 C 11,7 C 41 % 1023,5 hPa 0,0 l/m 2 min 0 min 623 W/m 29,0 km/h (5 Bft) 97,83 %
10.03.2022 13:28 16,1 C 21,7 C 11,7 C 40 % 1023,5 hPa 0,0 l/m 2 min 0 min 621 W/m 16,1 km/h (3 Bft) 97,87 %
10.03.2022 13:30 16,2 C 21,7 C 11,1 C 40 % 1023,5 hPa 0,0 l/m 2 min 0 min 622 W/m 22,5 km/h (4 Bft) 97,87 %
10.03.2022 13:32 16,1 C 22,2 C 11,1 C 40 % 1023,5 hPa 0,0 l/m 2 min 0 min 620 W/m 12,9 km/h (3 Bft) 97,87 %
10.03.2022 13:34 16,2 C 22,2 C 11,7 C 40 % 1023,4 hPa 0,0 l/m 2 min 0 min 618 W/m 29,0 km/h (5 Bft) 97,87 %
10.03.2022 13:36 16,2 C 22,2 C 11,7 C 40 % 1023,4 hPa 0,0 l/m 2 min 0 min 616 W/m 19,3 km/h (3 Bft) 97,83 %
10.03.2022 13:38 16,2 C 22,2 C 11,7 C 40 % 1023,4 hPa 0,0 l/m 2 min 0 min 614 W/m 19,3 km/h (3 Bft) 97,87 %
10.03.2022 13:40 16,3 C 22,2 C 11,7 C 39 % 1023,4 hPa 0,0 l/m 2 min 0 min 611 W/m 16,1 km/h (3 Bft) 97,87 %
10.03.2022 13:42 16,3 C 21,7 C 11,7 C 39 % 1023,4 hPa 0,0 l/m 2 min 0 min 610 W/m 22,5 km/h (4 Bft) 97,87 %
10.03.2022 13:44 16,3 C 22,2 C 11,7 C 39 % 1023,4 hPa 0,0 l/m 2 min 0 min 610 W/m 19,3 km/h (3 Bft) 100,00 %
10.03.2022 13:46 16,3 C 21,7 C 11,7 C 39 % 1023,3 hPa 0,0 l/m 2 min 0 min 606 W/m 19,3 km/h (3 Bft) 100,00 %
10.03.2022 13:48 16,3 C 21,7 C 11,7 C 39 % 1023,3 hPa 0,0 l/m 2 min 0 min 607 W/m 22,5 km/h (4 Bft) 100,00 %
10.03.2022 13:50 16,4 C 21,1 C 11,7 C 39 % 1023,3 hPa 0,0 l/m 2 min 0 min 605 W/m 22,5 km/h (4 Bft) 100,00 %
10.03.2022 13:52 16,4 C 21,7 C 11,7 C 39 % 1023,3 hPa 0,0 l/m 2 min 0 min 600 W/m 19,3 km/h (3 Bft) 100,00 %
10.03.2022 13:54 16,4 C 21,7 C 11,7 C 38 % 1023,2 hPa 0,0 l/m 2 min 0 min 598 W/m 19,3 km/h (3 Bft) 100,00 %
10.03.2022 13:56 16,4 C 21,1 C 11,7 C 38 % 1023,2 hPa 0,0 l/m 2 min 0 min 597 W/m 22,5 km/h (4 Bft) 100,00 %
10.03.2022 13:58 16,5 C 21,7 C 11,7 C 39 % 1023,1 hPa 0,0 l/m 2 min 0 min 596 W/m 25,7 km/h (4 Bft) 100,00 %
10.03.2022 14:00 16,5 C 21,1 C 11,7 C 38 % 1023,1 hPa 0,0 l/m 2 min 0 min 594 W/m 22,5 km/h (4 Bft) 97,83 %
10.03.2022 14:02 16,6 C 21,7 C 11,7 C 38 % 1023,1 hPa 0,0 l/m 2 min 0 min 591 W/m 16,1 km/h (3 Bft) 97,87 %
10.03.2022 14:04 16,6 C 21,7 C 11,7 C 38 % 1023,1 hPa 0,0 l/m 2 min 0 min 590 W/m 19,3 km/h (3 Bft) 100,00 %
10.03.2022 14:06 16,7 C 21,7 C 11,7 C 37 % 1023,1 hPa 0,0 l/m 2 min 0 min 586 W/m 19,3 km/h (3 Bft) 100,00 %
10.03.2022 14:08 16,7 C 21,1 C 11,7 C 37 % 1023,1 hPa 0,0 l/m 2 min 0 min 585 W/m 19,3 km/h (3 Bft) 100,00 %
10.03.2022 14:10 16,7 C 21,1 C 11,7 C 37 % 1023,0 hPa 0,0 l/m 2 min 0 min 584 W/m 22,5 km/h (4 Bft) 100,00 %
10.03.2022 14:12 16,7 C 20,6 C 11,7 C 36 % 1023,1 hPa 0,0 l/m 2 min 0 min 581 W/m 22,5 km/h (4 Bft) 100,00 %
10.03.2022 14:14 16,7 C 20,0 C 11,7 C 36 % 1023,0 hPa 0,0 l/m 2 min 0 min 577 W/m 19,3 km/h (3 Bft) 100,00 %
10.03.2022 14:16 16,7 C 20,6 C 11,7 C 37 % 1023,0 hPa 0,0 l/m 2 min 0 min 576 W/m 19,3 km/h (3 Bft) 97,87 %
10.03.2022 14:18 16,8 C 21,1 C 11,7 C 37 % 1022,9 hPa 0,0 l/m 2 min 0 min 572 W/m 19,3 km/h (3 Bft) 100,00 %
10.03.2022 14:20 16,8 C 20,6 C 11,7 C 36 % 1022,9 hPa 0,0 l/m 2 min 0 min 570 W/m 29,0 km/h (5 Bft) 100,00 %
10.03.2022 14:22 16,7 C 20,0 C 11,7 C 36 % 1022,9 hPa 0,0 l/m 2 min 0 min 568 W/m 25,7 km/h (4 Bft) 100,00 %
10.03.2022 14:24 16,7 C 20,6 C 11,7 C 37 % 1022,8 hPa 0,0 l/m 2 min 0 min 564 W/m 19,3 km/h (3 Bft) 100,00 %
10.03.2022 14:26 16,8 C 20,0 C 11,7 C 36 % 1022,8 hPa 0,0 l/m 2 min 0 min 563 W/m 29,0 km/h (5 Bft) 100,00 %
10.03.2022 14:28 16,8 C 20,0 C 11,7 C 36 % 1022,8 hPa 0,0 l/m 2 min 0 min 561 W/m 19,3 km/h (3 Bft) 100,00 %
10.03.2022 14:30 16,7 C 20,0 C 11,7 C 36 % 1022,7 hPa 0,0 l/m 2 min 0 min 558 W/m 22,5 km/h (4 Bft) 100,00 %
10.03.2022 14:32 16,7 C 20,0 C 11,7 C 36 % 1022,8 hPa 0,0 l/m 2 min 0 min 554 W/m 22,5 km/h (4 Bft) 100,00 %
10.03.2022 14:34 16,7 C 20,0 C 11,7 C 35 % 1022,7 hPa 0,0 l/m 2 min 0 min 552 W/m 19,3 km/h (3 Bft) 100,00 %
10.03.2022 14:36 16,7 C 20,0 C 11,7 C 35 % 1022,8 hPa 0,0 l/m 2 min 0 min 550 W/m 22,5 km/h (4 Bft) 100,00 %
10.03.2022 14:38 16,7 C 20,0 C 11,7 C 35 % 1022,7 hPa 0,0 l/m 2 min 0 min 548 W/m 22,5 km/h (4 Bft) 100,00 %
10.03.2022 14:40 16,7 C 21,1 C 11,7 C 35 % 1022,7 hPa 0,0 l/m 2 min 0 min 544 W/m 22,5 km/h (4 Bft) 100,00 %
10.03.2022 14:42 16,7 C 21,1 C 11,7 C 35 % 1022,6 hPa 0,0 l/m 2 min 0 min 541 W/m 22,5 km/h (4 Bft) 100,00 %
10.03.2022 14:44 16,7 C 20,6 C 11,7 C 35 % 1022,7 hPa 0,0 l/m 2 min 0 min 539 W/m 29,0 km/h (5 Bft) 97,67 %
10.03.2022 14:46 16,7 C 20,6 C 11,7 C 35 % 1022,6 hPa 0,0 l/m 2 min 0 min 535 W/m 25,7 km/h (4 Bft) 100,00 %
10.03.2022 14:48 16,7 C 20,0 C 11,7 C 35 % 1022,7 hPa 0,0 l/m 2 min 0 min 530 W/m 22,5 km/h (4 Bft) 100,00 %
10.03.2022 14:50 16,7 C 19,4 C 12,2 C 35 % 1022,6 hPa 0,0 l/m 2 min 0 min 528 W/m 25,7 km/h (4 Bft) 97,87 %
10.03.2022 14:52 16,7 C 18,9 C 12,2 C 34 % 1022,6 hPa 0,0 l/m 2 min 0 min 526 W/m 25,7 km/h (4 Bft) 97,73 %
10.03.2022 14:54 16,8 C 20,0 C 12,2 C 34 % 1022,6 hPa 0,0 l/m 2 min 0 min 523 W/m 22,5 km/h (4 Bft) 95,92 %
10.03.2022 14:56 16,8 C 20,0 C 12,2 C 34 % 1022,6 hPa 0,0 l/m 2 min 0 min 520 W/m 25,7 km/h (4 Bft) 97,92 %
10.03.2022 14:58 16,8 C 20,6 C 12,2 C 33 % 1022,6 hPa 0,0 l/m 2 min 0 min 515 W/m 16,1 km/h (3 Bft) 97,83 %
10.03.2022 15:00 16,9 C 20,6 C 12,2 C 34 % 1022,5 hPa 0,0 l/m 2 min 0 min 512 W/m 25,7 km/h (4 Bft) 97,87 %
10.03.2022 15:02 16,8 C 20,0 C 12,2 C 33 % 1022,5 hPa 0,0 l/m 2 min 0 min 507 W/m 29,0 km/h (5 Bft) 97,87 %
10.03.2022 15:04 16,9 C 21,1 C 12,2 C 33 % 1022,5 hPa 0,0 l/m 2 min 0 min 500 W/m 19,3 km/h (3 Bft) 97,87 %
10.03.2022 15:06 16,9 C 20,6 C 11,7 C 33 % 1022,5 hPa 0,0 l/m 2 min 0 min 498 W/m 25,7 km/h (4 Bft) 95,74 %
10.03.2022 15:08 16,9 C 20,6 C 11,7 C 33 % 1022,4 hPa 0,0 l/m 2 min 0 min 495 W/m 25,7 km/h (4 Bft) 95,74 %
10.03.2022 15:10 16,9 C 19,4 C 11,7 C 33 % 1022,4 hPa 0,0 l/m 2 min 0 min 489 W/m 22,5 km/h (4 Bft) 95,65 %
10.03.2022 15:12 16,9 C 18,9 C 11,7 C 33 % 1022,4 hPa 0,0 l/m 2 min 0 min 484 W/m 25,7 km/h (4 Bft) 95,74 %
10.03.2022 15:14 16,8 C 18,9 C 11,7 C 33 % 1022,4 hPa 0,0 l/m 2 min 0 min 482 W/m 25,7 km/h (4 Bft) 93,62 %
10.03.2022 15:16 16,8 C 18,3 C 11,7 C 34 % 1022,3 hPa 0,0 l/m 2 min 0 min 476 W/m 29,0 km/h (5 Bft) 95,74 %
10.03.2022 15:18 16,8 C 18,9 C 11,7 C 33 % 1022,3 hPa 0,0 l/m 2 min 0 min 472 W/m 29,0 km/h (5 Bft) 95,74 %
10.03.2022 15:20 16,8 C 18,9 C 11,7 C 33 % 1022,2 hPa 0,0 l/m 2 min 0 min 465 W/m 25,7 km/h (4 Bft) 93,62 %
10.03.2022 15:22 16,8 C 20,6 C 12,2 C 34 % 1022,3 hPa 0,0 l/m 2 min 0 min 466 W/m 19,3 km/h (3 Bft) 91,30 %
10.03.2022 15:24 16,9 C 20,6 C 12,2 C 35 % 1022,2 hPa 0,0 l/m 2 min 0 min 459 W/m 25,7 km/h (4 Bft) 95,74 %
10.03.2022 15:26 16,9 C 21,1 C 12,2 C 35 % 1022,2 hPa 0,0 l/m 2 min 0 min 461 W/m 25,7 km/h (4 Bft) 95,74 %
10.03.2022 15:28 16,9 C 21,1 C 12,2 C 35 % 1022,3 hPa 0,0 l/m 2 min 0 min 451 W/m 25,7 km/h (4 Bft) 95,74 %
10.03.2022 15:30 16,9 C 20,6 C 12,2 C 34 % 1022,2 hPa 0,0 l/m 2 min 0 min 446 W/m 25,7 km/h (4 Bft) 91,49 %
10.03.2022 15:32 16,9 C 21,1 C 12,2 C 34 % 1022,2 hPa 0,0 l/m 2 min 0 min 441 W/m 22,5 km/h (4 Bft) 93,62 %
10.03.2022 15:34 16,9 C 21,7 C 12,2 C 34 % 1022,2 hPa 0,0 l/m 2 min 0 min 436 W/m 19,3 km/h (3 Bft) 95,65 %
10.03.2022 15:36 16,9 C 21,7 C 12,2 C 34 % 1022,2 hPa 0,0 l/m 2 min 0 min 434 W/m 22,5 km/h (4 Bft) 93,62 %
10.03.2022 15:38 16,9 C 22,2 C 12,2 C 35 % 1022,1 hPa 0,0 l/m 2 min 0 min 430 W/m 19,3 km/h (3 Bft) 93,62 %
10.03.2022 15:40 16,9 C 22,2 C 12,2 C 35 % 1022,2 hPa 0,0 l/m 2 min 0 min 426 W/m 19,3 km/h (3 Bft) 93,62 %
10.03.2022 15:42 17,0 C 22,8 C 12,2 C 35 % 1022,1 hPa 0,0 l/m 2 min 0 min 422 W/m 29,0 km/h (5 Bft) 95,74 %
10.03.2022 15:44 17,1 C 22,8 C 12,2 C 35 % 1022,1 hPa 0,0 l/m 2 min 0 min 416 W/m 25,7 km/h (4 Bft) 95,74 %
10.03.2022 15:46 17,1 C 22,8 C 11,7 C 35 % 1022,1 hPa 0,0 l/m 2 min 0 min 412 W/m 19,3 km/h (3 Bft) 95,65 %
10.03.2022 15:48 17,1 C 22,8 C 11,7 C 35 % 1022,1 hPa 0,0 l/m 2 min 0 min 410 W/m 16,1 km/h (3 Bft) 95,74 %
10.03.2022 15:50 17,2 C 22,2 C 11,7 C 35 % 1022,0 hPa 0,0 l/m 2 min 0 min 405 W/m 22,5 km/h (4 Bft) 95,74 %
10.03.2022 15:52 17,2 C 21,7 C 11,7 C 34 % 1022,0 hPa 0,0 l/m 2 min 0 min 401 W/m 12,9 km/h (3 Bft) 93,62 %
10.03.2022 15:54 17,2 C 22,2 C 11,7 C 34 % 1022,0 hPa 0,0 l/m 2 min 0 min 397 W/m 22,5 km/h (4 Bft) 91,49 %
10.03.2022 15:56 17,2 C 21,7 C 11,7 C 34 % 1021,9 hPa 0,0 l/m 2 min 0 min 392 W/m 29,0 km/h (5 Bft) 95,74 %
10.03.2022 15:58 17,2 C 22,2 C 11,7 C 34 % 1021,9 hPa 0,0 l/m 2 min 0 min 386 W/m 19,3 km/h (3 Bft) 93,48 %
10.03.2022 16:00 17,2 C 21,7 C 11,7 C 34 % 1021,9 hPa 0,0 l/m 2 min 0 min 382 W/m 22,5 km/h (4 Bft) 95,74 %
10.03.2022 16:02 17,2 C 21,7 C 11,7 C 34 % 1021,9 hPa 0,0 l/m 2 min 0 min 373 W/m 22,5 km/h (4 Bft) 93,62 %
10.03.2022 16:04 17,2 C 21,7 C 11,1 C 34 % 1021,9 hPa 0,0 l/m 2 min 0 min 366 W/m 19,3 km/h (3 Bft) 95,74 %
10.03.2022 16:06 17,1 C 21,7 C 11,1 C 34 % 1021,8 hPa 0,0 l/m 2 min 0 min 361 W/m 19,3 km/h (3 Bft) 95,74 %
10.03.2022 16:08 17,1 C 21,7 C 11,1 C 34 % 1021,8 hPa 0,0 l/m 2 min 0 min 359 W/m 22,5 km/h (4 Bft) 95,65 %
10.03.2022 16:10 17,1 C 21,7 C 11,1 C 35 % 1021,8 hPa 0,0 l/m 2 min 0 min 352 W/m 19,3 km/h (3 Bft) 95,74 %
10.03.2022 16:12 17,1 C 21,7 C 11,1 C 34 % 1021,7 hPa 0,0 l/m 2 min 0 min 347 W/m 19,3 km/h (3 Bft) 95,74 %
10.03.2022 16:14 17,0 C 21,1 C 11,1 C 35 % 1021,8 hPa 0,0 l/m 2 min 0 min 343 W/m 25,7 km/h (4 Bft) 95,74 %
10.03.2022 16:16 16,9 C 21,1 C 11,1 C 35 % 1021,7 hPa 0,0 l/m 2 min 0 min 337 W/m 22,5 km/h (4 Bft) 97,87 %
10.03.2022 16:18 16,9 C 21,1 C 11,1 C 34 % 1021,6 hPa 0,0 l/m 2 min 0 min 328 W/m 16,1 km/h (3 Bft) 97,87 %
10.03.2022 16:20 16,9 C 21,7 C 11,1 C 35 % 1021,6 hPa 0,0 l/m 2 min 0 min 323 W/m 19,3 km/h (3 Bft) 97,87 %
10.03.2022 16:22 16,9 C 21,1 C 11,1 C 35 % 1021,6 hPa 0,0 l/m 2 min 0 min 317 W/m 16,1 km/h (3 Bft) 97,83 %
10.03.2022 16:24 16,8 C 18,9 C 11,1 C 35 % 1021,6 hPa 0,0 l/m 2 min 0 min 312 W/m 19,3 km/h (3 Bft) 97,87 %
10.03.2022 16:26 16,8 C 17,8 C 11,1 C 35 % 1021,6 hPa 0,0 l/m 2 min 0 min 309 W/m 19,3 km/h (3 Bft) 100,00 %
10.03.2022 16:28 16,8 C 16,1 C 11,1 C 34 % 1021,6 hPa 0,0 l/m 2 min 0 min 302 W/m 25,7 km/h (4 Bft) 100,00 %
10.03.2022 16:30 16,7 C 15,6 C 11,1 C 34 % 1021,5 hPa 0,0 l/m 2 min 0 min 295 W/m 25,7 km/h (4 Bft) 100,00 %
10.03.2022 16:32 16,7 C 15,6 C 11,1 C 35 % 1021,6 hPa 0,0 l/m 2 min 0 min 290 W/m 19,3 km/h (3 Bft) 97,87 %
10.03.2022 16:34 16,6 C 15,6 C 11,1 C 35 % 1021,5 hPa 0,0 l/m 2 min 0 min 281 W/m 16,1 km/h (3 Bft) 100,00 %
10.03.2022 16:36 16,5 C 15,6 C 11,1 C 35 % 1021,5 hPa 0,0 l/m 2 min 0 min 272 W/m 22,5 km/h (4 Bft) 100,00 %
10.03.2022 16:38 16,5 C 15,6 C 10,6 C 36 % 1021,5 hPa 0,0 l/m 2 min 0 min 265 W/m 19,3 km/h (3 Bft) 100,00 %
10.03.2022 16:40 16,4 C 15,0 C 10,6 C 35 % 1021,5 hPa 0,0 l/m 2 min 0 min 258 W/m 16,1 km/h (3 Bft) 100,00 %
10.03.2022 16:42 16,3 C 15,0 C 10,6 C 35 % 1021,5 hPa 0,0 l/m 2 min 0 min 250 W/m 22,5 km/h (4 Bft) 100,00 %
10.03.2022 16:44 16,3 C 15,0 C 10,6 C 35 % 1021,5 hPa 0,0 l/m 2 min 0 min 244 W/m 22,5 km/h (4 Bft) 100,00 %
10.03.2022 16:46 16,3 C 15,0 C 10,6 C 35 % 1021,4 hPa 0,0 l/m 2 min 0 min 237 W/m 29,0 km/h (5 Bft) 100,00 %
10.03.2022 16:48 16,2 C 15,0 C 10,6 C 35 % 1021,4 hPa 0,0 l/m 2 min 0 min 231 W/m 35,4 km/h (5 Bft) 100,00 %
10.03.2022 16:50 16,1 C 15,0 C 10,6 C 35 % 1021,4 hPa 0,0 l/m 2 min 0 min 224 W/m 25,7 km/h (4 Bft) 100,00 %
10.03.2022 16:52 16,0 C 15,0 C 10,6 C 35 % 1021,3 hPa 0,0 l/m 2 min 0 min 216 W/m 25,7 km/h (4 Bft) 100,00 %
10.03.2022 16:54 15,9 C 15,0 C 10,6 C 36 % 1021,4 hPa 0,0 l/m 2 min 0 min 210 W/m 29,0 km/h (5 Bft) 100,00 %
10.03.2022 16:56 15,9 C 15,0 C 10,6 C 36 % 1021,3 hPa 0,0 l/m 2 min 0 min 201 W/m 16,1 km/h (3 Bft) 100,00 %
10.03.2022 16:58 15,8 C 15,0 C 10,6 C 36 % 1021,2 hPa 0,0 l/m 2 min 0 min 194 W/m 19,3 km/h (3 Bft) 100,00 %
10.03.2022 17:00 15,8 C 14,4 C 10,6 C 37 % 1021,2 hPa 0,0 l/m 2 min 0 min 188 W/m 16,1 km/h (3 Bft) 100,00 %
10.03.2022 17:02 15,8 C 14,4 C 10,6 C 37 % 1021,2 hPa 0,0 l/m 2 min 0 min 181 W/m 16,1 km/h (3 Bft) 100,00 %
10.03.2022 17:04 15,7 C 14,4 C 10,6 C 38 % 1021,3 hPa 0,0 l/m 2 min 0 min 174 W/m 16,1 km/h (3 Bft) 100,00 %
10.03.2022 17:06 15,7 C 14,4 C 10,6 C 37 % 1021,2 hPa 0,0 l/m 2 min 0 min 167 W/m 19,3 km/h (3 Bft) 100,00 %
10.03.2022 17:08 15,7 C 14,4 C 10,6 C 38 % 1021,2 hPa 0,0 l/m 2 min 0 min 161 W/m 19,3 km/h (3 Bft) 97,83 %
10.03.2022 17:10 15,7 C 14,4 C 10,6 C 37 % 1021,1 hPa 0,0 l/m 2 min 0 min 153 W/m 22,5 km/h (4 Bft) 100,00 %
10.03.2022 17:12 15,7 C 14,4 C 10,6 C 37 % 1021,1 hPa 0,0 l/m 2 min 0 min 98 W/m 19,3 km/h (3 Bft) 100,00 %
10.03.2022 17:14 15,6 C 14,4 C 10,6 C 38 % 1021,2 hPa 0,0 l/m 0 min 0 min 37 W/m 19,3 km/h (3 Bft) 97,87 %
10.03.2022 17:16 15,6 C 14,4 C 10,0 C 38 % 1021,1 hPa 0,0 l/m 0 min 0 min 35 W/m 12,9 km/h (3 Bft) 100,00 %
10.03.2022 17:18 15,6 C 14,4 C 10,0 C 38 % 1021,2 hPa 0,0 l/m 0 min 0 min 33 W/m 22,5 km/h (4 Bft) 100,00 %
10.03.2022 17:20 15,5 C 14,4 C 10,0 C 39 % 1021,1 hPa 0,0 l/m 0 min 0 min 33 W/m 16,1 km/h (3 Bft) 100,00 %
10.03.2022 17:22 15,4 C 14,4 C 10,0 C 39 % 1021,2 hPa 0,0 l/m 0 min 0 min 33 W/m 12,9 km/h (3 Bft) 100,00 %
10.03.2022 17:24 15,4 C 14,4 C 10,0 C 40 % 1021,1 hPa 0,0 l/m 0 min 0 min 33 W/m 6,4 km/h (2 Bft) 97,87 %
10.03.2022 17:26 15,3 C 14,4 C 10,0 C 40 % 1021,1 hPa 0,0 l/m 0 min 0 min 33 W/m 12,9 km/h (3 Bft) 95,74 %
10.03.2022 17:28 15,3 C 13,9 C 10,0 C 40 % 1021,1 hPa 0,0 l/m 0 min 0 min 32 W/m 16,1 km/h (3 Bft) 97,87 %
10.03.2022 17:30 15,2 C 13,9 C 9,4 C 41 % 1021,1 hPa 0,0 l/m 0 min 0 min 32 W/m 12,9 km/h (3 Bft) 97,87 %
10.03.2022 17:32 15,1 C 13,9 C 9,4 C 41 % 1021,1 hPa 0,0 l/m 0 min 0 min 31 W/m 22,5 km/h (4 Bft) 95,65 %
10.03.2022 17:34 15,1 C 13,9 C 9,4 C 41 % 1021,1 hPa 0,0 l/m 0 min 0 min 30 W/m 16,1 km/h (3 Bft) 95,74 %
10.03.2022 17:36 15,0 C 13,9 C 9,4 C 41 % 1021,1 hPa 0,0 l/m 0 min 0 min 30 W/m 16,1 km/h (3 Bft) 97,87 %
10.03.2022 17:38 14,9 C 13,9 C 9,4 C 41 % 1021,1 hPa 0,0 l/m 0 min 0 min 29 W/m 9,7 km/h (2 Bft) 97,87 %
10.03.2022 17:40 14,9 C 13,9 C 9,4 C 41 % 1021,1 hPa 0,0 l/m 0 min 0 min 28 W/m 12,9 km/h (3 Bft) 97,87 %
10.03.2022 17:42 14,8 C 13,9 C 9,4 C 42 % 1021,2 hPa 0,0 l/m 0 min 0 min 27 W/m 6,4 km/h (2 Bft) 97,87 %
10.03.2022 17:44 14,7 C 13,9 C 9,4 C 42 % 1021,2 hPa 0,0 l/m 0 min 0 min 26 W/m 6,4 km/h (2 Bft) 97,83 %
10.03.2022 17:46 14,7 C 13,3 C 9,4 C 43 % 1021,2 hPa 0,0 l/m 0 min 0 min 25 W/m 12,9 km/h (3 Bft) 97,87 %
10.03.2022 17:48 14,6 C 13,3 C 8,9 C 43 % 1021,1 hPa 0,0 l/m 0 min 0 min 26 W/m 6,4 km/h (2 Bft) 95,74 %
10.03.2022 17:50 14,5 C 13,3 C 8,9 C 43 % 1021,2 hPa 0,0 l/m 0 min 0 min 28 W/m 16,1 km/h (3 Bft) 95,74 %
10.03.2022 17:52 14,4 C 13,3 C 9,4 C 42 % 1021,1 hPa 0,0 l/m 0 min 0 min 25 W/m 16,1 km/h (3 Bft) 95,74 %
10.03.2022 17:54 14,3 C 13,3 C 8,9 C 43 % 1021,2 hPa 0,0 l/m 0 min 0 min 24 W/m 6,4 km/h (2 Bft) 93,62 %
10.03.2022 17:56 14,3 C 13,3 C 8,9 C 43 % 1021,2 hPa 0,0 l/m 0 min 0 min 24 W/m 16,1 km/h (3 Bft) 95,74 %
10.03.2022 17:58 14,3 C 13,3 C 8,9 C 43 % 1021,2 hPa 0,0 l/m 0 min 0 min 23 W/m 16,1 km/h (3 Bft) 95,65 %
10.03.2022 18:00 14,3 C 13,3 C 8,9 C 43 % 1021,1 hPa 0,0 l/m 0 min 0 min 21 W/m 16,1 km/h (3 Bft) 95,74 %
10.03.2022 18:02 14,3 C 13,3 C 8,9 C 43 % 1021,1 hPa 0,0 l/m 0 min 0 min 19 W/m 12,9 km/h (3 Bft) 95,74 %
10.03.2022 18:04 14,2 C 12,8 C 8,9 C 43 % 1021,2 hPa 0,0 l/m 0 min 0 min 19 W/m 22,5 km/h (4 Bft) 95,74 %
10.03.2022 18:08 14,1 C 12,8 C 8,9 C 43 % 1021,1 hPa 0,0 l/m 0 min 0 min 18 W/m 12,9 km/h (3 Bft) 95,70 %
10.03.2022 18:10 14,0 C 12,8 C 8,9 C 43 % 1021,2 hPa 0,0 l/m 0 min 0 min 16 W/m 12,9 km/h (3 Bft) 95,74 %
10.03.2022 18:12 13,9 C 12,8 C 8,9 C 43 % 1021,2 hPa 0,0 l/m 0 min 0 min 15 W/m 16,1 km/h (3 Bft) 95,74 %
10.03.2022 18:14 13,8 C 12,8 C 8,3 C 43 % 1021,2 hPa 0,0 l/m 0 min 0 min 14 W/m 6,4 km/h (2 Bft) 93,62 %
10.03.2022 18:16 13,8 C 12,2 C 8,3 C 44 % 1021,2 hPa 0,0 l/m 0 min 0 min 12 W/m 6,4 km/h (2 Bft) 95,74 %
10.03.2022 18:18 13,7 C 12,2 C 8,3 C 44 % 1021,1 hPa 0,0 l/m 0 min 0 min 11 W/m 12,9 km/h (3 Bft) 95,74 %
10.03.2022 18:20 13,6 C 12,2 C 8,3 C 44 % 1021,2 hPa 0,0 l/m 0 min 0 min 10 W/m 12,9 km/h (3 Bft) 95,65 %
10.03.2022 18:22 13,6 C 12,2 C 8,3 C 45 % 1021,2 hPa 0,0 l/m 0 min 0 min 9 W/m 12,9 km/h (3 Bft) 95,74 %
10.03.2022 18:24 13,5 C 12,2 C 7,8 C 45 % 1021,3 hPa 0,0 l/m 0 min 0 min 7 W/m 6,4 km/h (2 Bft) 93,62 %
10.03.2022 18:26 13,4 C 11,7 C 7,8 C 45 % 1021,2 hPa 0,0 l/m 0 min 0 min 7 W/m 6,4 km/h (2 Bft) 93,62 %
10.03.2022 18:28 13,3 C 11,7 C 7,8 C 46 % 1021,2 hPa 0,0 l/m 0 min 0 min 5 W/m 6,4 km/h (2 Bft) 97,87 %
10.03.2022 18:30 13,2 C 11,7 C 7,8 C 46 % 1021,2 hPa 0,0 l/m 0 min 0 min 5 W/m 6,4 km/h (2 Bft) 97,87 %
10.03.2022 18:32 13,1 C 11,7 C 7,8 C 46 % 1021,2 hPa 0,0 l/m 0 min 0 min 0 W/m 6,4 km/h (2 Bft) 97,83 %
10.03.2022 18:34 12,9 C 11,7 C 7,2 C 46 % 1021,2 hPa 0,0 l/m 0 min 0 min 0 W/m 6,4 km/h (2 Bft) 97,87 %
10.03.2022 18:36 12,8 C 11,1 C 7,2 C 46 % 1021,2 hPa 0,0 l/m 0 min 0 min 0 W/m 6,4 km/h (2 Bft) 95,74 %
10.03.2022 18:38 12,7 C 11,1 C 7,2 C 46 % 1021,2 hPa 0,0 l/m 0 min 0 min 0 W/m 6,4 km/h (2 Bft) 97,87 %
10.03.2022 18:40 12,7 C 11,1 C 7,2 C 46 % 1021,2 hPa 0,0 l/m 0 min 0 min 0 W/m 9,7 km/h (2 Bft) 100,00 %
10.03.2022 18:42 12,6 C 11,1 C 7,2 C 46 % 1021,2 hPa 0,0 l/m 0 min 0 min 0 W/m 9,7 km/h (2 Bft) 100,00 %
10.03.2022 18:44 12,5 C 11,1 C 7,2 C 47 % 1021,2 hPa 0,0 l/m 0 min 0 min 0 W/m 12,9 km/h (3 Bft) 100,00 %
10.03.2022 18:46 12,4 C 11,1 C 7,2 C 47 % 1021,1 hPa 0,0 l/m 0 min 0 min 0 W/m 6,4 km/h (2 Bft) 100,00 %
10.03.2022 18:48 12,4 C 11,1 C 7,2 C 47 % 1021,1 hPa 0,0 l/m 0 min 0 min 0 W/m 6,4 km/h (2 Bft) 100,00 %
10.03.2022 18:50 12,3 C 11,1 C 7,2 C 47 % 1021,2 hPa 0,0 l/m 0 min 0 min 0 W/m 12,9 km/h (3 Bft) 100,00 %
10.03.2022 18:52 12,2 C 11,1 C 7,2 C 47 % 1021,2 hPa 0,0 l/m 0 min 0 min 0 W/m 12,9 km/h (3 Bft) 100,00 %
10.03.2022 18:54 12,2 C 10,6 C 7,2 C 48 % 1021,2 hPa 0,0 l/m 0 min 0 min 0 W/m 6,4 km/h (2 Bft) 100,00 %
10.03.2022 18:56 12,1 C 10,6 C 6,7 C 48 % 1021,3 hPa 0,0 l/m 0 min 0 min 0 W/m 12,9 km/h (3 Bft) 100,00 %
10.03.2022 18:58 12,1 C 10,6 C 6,7 C 48 % 1021,2 hPa 0,0 l/m 0 min 0 min 0 W/m 12,9 km/h (3 Bft) 100,00 %
10.03.2022 19:00 12,0 C 10,6 C 6,7 C 48 % 1021,3 hPa 0,0 l/m 0 min 0 min 0 W/m 12,9 km/h (3 Bft) 97,87 %
10.03.2022 19:02 11,9 C 10,6 C 6,7 C 48 % 1021,3 hPa 0,0 l/m 0 min 0 min 0 W/m 6,4 km/h (2 Bft) 100,00 %
10.03.2022 19:04 11,9 C 10,6 C 6,7 C 48 % 1021,3 hPa 0,0 l/m 0 min 0 min 0 W/m 6,4 km/h (2 Bft) 100,00 %
10.03.2022 19:06 11,8 C 10,6 C 6,7 C 48 % 1021,3 hPa 0,0 l/m 0 min 0 min 0 W/m 6,4 km/h (2 Bft) 100,00 %
10.03.2022 19:08 11,8 C 10,6 C 6,7 C 48 % 1021,3 hPa 0,0 l/m 0 min 0 min 0 W/m 9,7 km/h (2 Bft) 100,00 %
10.03.2022 19:10 11,7 C 10,6 C 6,7 C 48 % 1021,2 hPa 0,0 l/m 0 min 0 min 0 W/m 12,9 km/h (3 Bft) 97,87 %
10.03.2022 19:12 11,7 C 10,6 C 6,7 C 48 % 1021,3 hPa 0,0 l/m 0 min 0 min 0 W/m 6,4 km/h (2 Bft) 95,74 %
10.03.2022 19:14 11,7 C 10,6 C 6,7 C 48 % 1021,3 hPa 0,0 l/m 0 min 0 min 0 W/m 16,1 km/h (3 Bft) 100,00 %
10.03.2022 19:16 11,7 C 10,6 C 6,7 C 47 % 1021,3 hPa 0,0 l/m 0 min 0 min 0 W/m 6,4 km/h (2 Bft) 100,00 %
10.03.2022 19:18 11,7 C 10,6 C 6,7 C 47 % 1021,3 hPa 0,0 l/m 0 min 0 min 0 W/m 12,9 km/h (3 Bft) 100,00 %
10.03.2022 19:20 11,7 C 10,6 C 6,7 C 47 % 1021,3 hPa 0,0 l/m 0 min 0 min 0 W/m 6,4 km/h (2 Bft) 100,00 %
10.03.2022 19:22 11,6 C 10,6 C 6,7 C 47 % 1021,2 hPa 0,0 l/m 0 min 0 min 0 W/m 6,4 km/h (2 Bft) 97,87 %
10.03.2022 19:24 11,6 C 10,6 C 6,7 C 47 % 1021,3 hPa 0,0 l/m 0 min 0 min 0 W/m 6,4 km/h (2 Bft) 100,00 %
10.03.2022 19:26 11,6 C 10,6 C 6,7 C 47 % 1021,3 hPa 0,0 l/m 0 min 0 min 0 W/m 6,4 km/h (2 Bft) 95,74 %
10.03.2022 19:28 11,6 C 10,0 C 6,7 C 47 % 1021,2 hPa 0,0 l/m 0 min 0 min 0 W/m 6,4 km/h (2 Bft) 100,00 %
10.03.2022 19:30 11,5 C 10,0 C 6,1 C 48 % 1021,3 hPa 0,0 l/m 0 min 0 min 0 W/m 6,4 km/h (2 Bft) 100,00 %
10.03.2022 19:32 11,4 C 10,0 C 6,1 C 48 % 1021,3 hPa 0,0 l/m 0 min 0 min 0 W/m 6,4 km/h (2 Bft) 100,00 %
10.03.2022 19:34 11,4 C 10,0 C 6,1 C 48 % 1021,2 hPa 0,0 l/m 0 min 0 min 0 W/m 6,4 km/h (2 Bft) 95,74 %
10.03.2022 19:36 11,3 C 10,0 C 6,1 C 48 % 1021,2 hPa 0,0 l/m 0 min 0 min 0 W/m 6,4 km/h (2 Bft) 100,00 %
10.03.2022 19:38 11,3 C 10,0 C 6,1 C 48 % 1021,2 hPa 0,0 l/m 0 min 0 min 0 W/m 6,4 km/h (2 Bft) 100,00 %
10.03.2022 19:40 11,2 C 10,0 C 6,1 C 48 % 1021,2 hPa 0,0 l/m 0 min 0 min 0 W/m 6,4 km/h (2 Bft) 100,00 %
10.03.2022 19:42 11,2 C 10,0 C 6,1 C 48 % 1021,2 hPa 0,0 l/m 0 min 0 min 0 W/m 6,4 km/h (2 Bft) 100,00 %
10.03.2022 19:44 11,2 C 10,0 C 6,1 C 48 % 1021,2 hPa 0,0 l/m 0 min 0 min 0 W/m 6,4 km/h (2 Bft) 100,00 %
10.03.2022 19:46 11,1 C 10,0 C 6,1 C 48 % 1021,2 hPa 0,0 l/m 0 min 0 min 0 W/m 9,7 km/h (2 Bft) 100,00 %
10.03.2022 19:48 11,1 C 10,0 C 6,1 C 48 % 1021,1 hPa 0,0 l/m 0 min 0 min 0 W/m 12,9 km/h (3 Bft) 100,00 %
10.03.2022 19:50 11,1 C 10,0 C 6,1 C 48 % 1021,1 hPa 0,0 l/m 0 min 0 min 0 W/m 12,9 km/h (3 Bft) 97,87 %
10.03.2022 19:52 11,1 C 10,0 C 6,1 C 48 % 1021,1 hPa 0,0 l/m 0 min 0 min 0 W/m 6,4 km/h (2 Bft) 100,00 %
10.03.2022 19:54 11,1 C 10,0 C 6,1 C 48 % 1021,1 hPa 0,0 l/m 0 min 0 min 0 W/m 12,9 km/h (3 Bft) 93,48 %
10.03.2022 19:56 11,1 C 10,0 C 6,1 C 47 % 1021,0 hPa 0,0 l/m 0 min 0 min 0 W/m 9,7 km/h (2 Bft) 95,74 %
10.03.2022 19:58 11,1 C 10,0 C 6,1 C 47 % 1021,0 hPa 0,0 l/m 0 min 0 min 0 W/m 12,9 km/h (3 Bft) 97,87 %
10.03.2022 20:00 11,0 C 10,0 C 6,1 C 47 % 1021,1 hPa 0,0 l/m 0 min 0 min 0 W/m 6,4 km/h (2 Bft) 97,87 %
10.03.2022 20:02 11,0 C 10,0 C 6,1 C 48 % 1021,0 hPa 0,0 l/m 0 min 0 min 0 W/m 6,4 km/h (2 Bft) 95,74 %
10.03.2022 20:04 11,0 C 10,0 C 6,1 C 47 % 1021,0 hPa 0,0 l/m 0 min 0 min 0 W/m 6,4 km/h (2 Bft) 97,87 %
10.03.2022 20:06 10,9 C 10,0 C 6,1 C 48 % 1021,1 hPa 0,0 l/m 0 min 0 min 0 W/m 6,4 km/h (2 Bft) 95,65 %
10.03.2022 20:08 10,9 C 9,4 C 5,6 C 48 % 1021,0 hPa 0,0 l/m 0 min 0 min 0 W/m 6,4 km/h (2 Bft) 95,74 %
10.03.2022 20:10 10,9 C 9,4 C 5,6 C 48 % 1021,1 hPa 0,0 l/m 0 min 0 min 0 W/m 3,2 km/h (1 Bft) 95,74 %
10.03.2022 20:12 10,8 C 9,4 C 5,6 C 48 % 1021,0 hPa 0,0 l/m 0 min 0 min 0 W/m 12,9 km/h (3 Bft) 95,74 %
10.03.2022 20:14 10,8 C 9,4 C 5,6 C 48 % 1021,0 hPa 0,0 l/m 0 min 0 min 0 W/m 12,9 km/h (3 Bft) 97,87 %
10.03.2022 20:16 10,8 C 9,4 C 5,6 C 48 % 1021,0 hPa 0,0 l/m 0 min 0 min 0 W/m 16,1 km/h (3 Bft) 93,62 %
10.03.2022 20:18 10,7 C 9,4 C 5,6 C 48 % 1021,0 hPa 0,0 l/m 0 min 0 min 0 W/m 6,4 km/h (2 Bft) 95,65 %
10.03.2022 20:20 10,7 C 9,4 C 6,1 C 48 % 1021,0 hPa 0,0 l/m 0 min 0 min 0 W/m 12,9 km/h (3 Bft) 93,62 %
10.03.2022 20:22 10,7 C 10,0 C 6,1 C 48 % 1020,9 hPa 0,0 l/m 0 min 0 min 0 W/m 12,9 km/h (3 Bft) 91,49 %
10.03.2022 20:24 10,7 C 10,0 C 6,1 C 48 % 1020,9 hPa 0,0 l/m 0 min 0 min 0 W/m 12,9 km/h (3 Bft) 89,36 %
10.03.2022 20:26 10,7 C 10,0 C 6,1 C 48 % 1020,9 hPa 0,0 l/m 0 min 0 min 0 W/m 6,4 km/h (2 Bft) 89,36 %
10.03.2022 20:28 10,7 C 9,4 C 6,1 C 48 % 1020,9 hPa 0,0 l/m 0 min 0 min 0 W/m 6,4 km/h (2 Bft) 93,48 %
10.03.2022 20:30 10,7 C 10,0 C 6,1 C 48 % 1020,9 hPa 0,0 l/m 0 min 0 min 0 W/m 16,1 km/h (3 Bft) 93,62 %
10.03.2022 20:32 10,7 C 10,0 C 6,1 C 48 % 1020,9 hPa 0,0 l/m 0 min 0 min 0 W/m 16,1 km/h (3 Bft) 95,74 %
10.03.2022 20:34 10,7 C 10,0 C 6,1 C 48 % 1020,9 hPa 0,0 l/m 0 min 0 min 0 W/m 16,1 km/h (3 Bft) 95,74 %
10.03.2022 20:36 10,7 C 10,0 C 6,1 C 48 % 1020,9 hPa 0,0 l/m 0 min 0 min 0 W/m 12,9 km/h (3 Bft) 95,74 %
10.03.2022 20:38 10,7 C 9,4 C 5,6 C 48 % 1020,9 hPa 0,0 l/m 0 min 0 min 0 W/m 12,9 km/h (3 Bft) 95,74 %
10.03.2022 20:40 10,7 C 9,4 C 5,6 C 48 % 1020,9 hPa 0,0 l/m 0 min 0 min 0 W/m 6,4 km/h (2 Bft) 95,65 %
10.03.2022 20:42 10,6 C 9,4 C 5,6 C 48 % 1020,9 hPa 0,0 l/m 0 min 0 min 0 W/m 19,3 km/h (3 Bft) 95,74 %
10.03.2022 20:44 10,6 C 9,4 C 5,6 C 49 % 1020,8 hPa 0,0 l/m 0 min 0 min 0 W/m 12,9 km/h (3 Bft) 93,62 %
10.03.2022 20:46 10,6 C 9,4 C 5,6 C 49 % 1020,8 hPa 0,0 l/m 0 min 0 min 0 W/m 12,9 km/h (3 Bft) 97,87 %
10.03.2022 20:48 10,6 C 9,4 C 5,6 C 49 % 1020,9 hPa 0,0 l/m 0 min 0 min 0 W/m 19,3 km/h (3 Bft) 97,87 %
10.03.2022 20:50 10,5 C 9,4 C 5,6 C 49 % 1020,8 hPa 0,0 l/m 0 min 0 min 0 W/m 12,9 km/h (3 Bft) 97,87 %
10.03.2022 20:52 10,4 C 9,4 C 5,6 C 49 % 1020,8 hPa 0,0 l/m 0 min 0 min 0 W/m 12,9 km/h (3 Bft) 97,83 %
10.03.2022 20:54 10,4 C 9,4 C 5,6 C 49 % 1020,8 hPa 0,0 l/m 0 min 0 min 0 W/m 6,4 km/h (2 Bft) 97,87 %
10.03.2022 20:56 10,4 C 9,4 C 5,6 C 49 % 1020,8 hPa 0,0 l/m 0 min 0 min 0 W/m 12,9 km/h (3 Bft) 97,87 %
10.03.2022 20:58 10,4 C 9,4 C 5,6 C 49 % 1020,8 hPa 0,0 l/m 0 min 0 min 0 W/m 19,3 km/h (3 Bft) 97,87 %
10.03.2022 21:00 10,3 C 9,4 C 5,6 C 49 % 1020,8 hPa 0,0 l/m 0 min 0 min 0 W/m 12,9 km/h (3 Bft) 95,74 %
10.03.2022 21:02 10,3 C 9,4 C 5,6 C 49 % 1020,8 hPa 0,0 l/m 0 min 0 min 0 W/m 12,9 km/h (3 Bft) 97,87 %
10.03.2022 21:04 10,3 C 9,4 C 5,6 C 49 % 1020,8 hPa 0,0 l/m 0 min 0 min 0 W/m 6,4 km/h (2 Bft) 97,83 %
10.03.2022 21:06 10,3 C 9,4 C 5,6 C 49 % 1020,8 hPa 0,0 l/m 0 min 0 min 0 W/m 16,1 km/h (3 Bft) 97,87 %
10.03.2022 21:08 10,3 C 9,4 C 5,6 C 49 % 1020,8 hPa 0,0 l/m 0 min 0 min 0 W/m 9,7 km/h (2 Bft) 97,87 %
10.03.2022 21:10 10,2 C 9,4 C 5,6 C 49 % 1020,8 hPa 0,0 l/m 0 min 0 min 0 W/m 12,9 km/h (3 Bft) 97,87 %
10.03.2022 21:12 10,2 C 8,9 C 5,6 C 50 % 1020,8 hPa 0,0 l/m 0 min 0 min 0 W/m 6,4 km/h (2 Bft) 97,87 %
10.03.2022 21:14 10,2 C 8,9 C 5,0 C 50 % 1020,8 hPa 0,0 l/m 0 min 0 min 0 W/m 12,9 km/h (3 Bft) 100,00 %
10.03.2022 21:16 10,1 C 8,9 C 5,0 C 50 % 1020,8 hPa 0,0 l/m 0 min 0 min 0 W/m 6,4 km/h (2 Bft) 97,87 %
10.03.2022 21:18 10,1 C 8,9 C 5,0 C 50 % 1020,8 hPa 0,0 l/m 0 min 0 min 0 W/m 9,7 km/h (2 Bft) 97,83 %
10.03.2022 21:20 10,1 C 8,9 C 5,0 C 50 % 1020,8 hPa 0,0 l/m 0 min 0 min 0 W/m 12,9 km/h (3 Bft) 100,00 %
10.03.2022 21:22 10,0 C 8,9 C 5,0 C 50 % 1020,7 hPa 0,0 l/m 0 min 0 min 0 W/m 12,9 km/h (3 Bft) 95,74 %
10.03.2022 21:24 10,0 C 8,9 C 5,0 C 50 % 1020,7 hPa 0,0 l/m 0 min 0 min 0 W/m 6,4 km/h (2 Bft) 97,87 %
10.03.2022 21:26 9,9 C 8,9 C 5,0 C 50 % 1020,7 hPa 0,0 l/m 0 min 0 min 0 W/m 6,4 km/h (2 Bft) 97,87 %
10.03.2022 21:28 9,9 C 8,9 C 5,0 C 50 % 1020,7 hPa 0,0 l/m 0 min 0 min 0 W/m 6,4 km/h (2 Bft) 100,00 %
10.03.2022 21:30 9,9 C 8,9 C 5,0 C 50 % 1020,7 hPa 0,0 l/m 0 min 0 min 0 W/m 6,4 km/h (2 Bft) 100,00 %
10.03.2022 21:32 9,9 C 8,3 C 5,0 C 50 % 1020,8 hPa 0,0 l/m 0 min 0 min 0 W/m 6,4 km/h (2 Bft) 97,87 %
10.03.2022 21:34 9,8 C 8,3 C 4,4 C 50 % 1020,8 hPa 0,0 l/m 0 min 0 min 0 W/m 6,4 km/h (2 Bft) 100,00 %
10.03.2022 21:36 9,8 C 8,3 C 4,4 C 51 % 1020,8 hPa 0,0 l/m 0 min 0 min 0 W/m 6,4 km/h (2 Bft) 100,00 %
10.03.2022 21:38 9,7 C 8,3 C 4,4 C 51 % 1020,8 hPa 0,0 l/m 0 min 0 min 0 W/m 12,9 km/h (3 Bft) 97,87 %
10.03.2022 21:40 9,7 C 8,3 C 4,4 C 51 % 1020,8 hPa 0,0 l/m 0 min 0 min 0 W/m 6,4 km/h (2 Bft) 97,83 %
10.03.2022 21:42 9,6 C 8,3 C 4,4 C 51 % 1020,8 hPa 0,0 l/m 0 min 0 min 0 W/m 3,2 km/h (1 Bft) 100,00 %
10.03.2022 21:44 9,6 C 7,8 C 4,4 C 52 % 1020,8 hPa 0,0 l/m 0 min 0 min 0 W/m 3,2 km/h (1 Bft) 100,00 %
10.03.2022 21:46 9,6 C 7,8 C 4,4 C 52 % 1020,8 hPa 0,0 l/m 0 min 0 min 0 W/m 3,2 km/h (1 Bft) 97,87 %
10.03.2022 21:48 9,5 C 7,8 C 3,9 C 52 % 1020,8 hPa 0,0 l/m 0 min 0 min 0 W/m 3,2 km/h (1 Bft) 100,00 %
10.03.2022 21:50 9,4 C 7,8 C 3,9 C 52 % 1020,8 hPa 0,0 l/m 0 min 0 min 0 W/m 3,2 km/h (1 Bft) 97,87 %
10.03.2022 21:52 9,3 C 7,2 C 3,9 C 53 % 1020,8 hPa 0,0 l/m 0 min 0 min 0 W/m 3,2 km/h (1 Bft) 97,83 %
10.03.2022 21:54 9,2 C 7,2 C 3,9 C 53 % 1020,8 hPa 0,0 l/m 0 min 0 min 0 W/m 3,2 km/h (1 Bft) 95,74 %
10.03.2022 21:56 9,1 C 7,2 C 3,3 C 53 % 1020,8 hPa 0,0 l/m 0 min 0 min 0 W/m 3,2 km/h (1 Bft) 95,74 %
10.03.2022 21:58 9,1 C 7,2 C 3,3 C 53 % 1020,8 hPa 0,0 l/m 0 min 0 min 0 W/m 3,2 km/h (1 Bft) 97,87 %
10.03.2022 22:00 9,0 C 6,7 C 3,3 C 54 % 1020,8 hPa 0,0 l/m 0 min 0 min 0 W/m 3,2 km/h (1 Bft) 97,87 %
10.03.2022 22:02 8,9 C 6,7 C 3,3 C 54 % 1020,8 hPa 0,0 l/m 0 min 0 min 0 W/m 0,0 km/h (0 Bft) 97,87 %
10.03.2022 22:04 8,9 C 6,7 C 2,8 C 54 % 1020,8 hPa 0,0 l/m 0 min 0 min 0 W/m 0,0 km/h (0 Bft) 97,83 %
10.03.2022 22:06 8,8 C 6,7 C 2,8 C 53 % 1020,7 hPa 0,0 l/m 0 min 0 min 0 W/m 6,4 km/h (2 Bft) 95,74 %
10.03.2022 22:08 8,8 C 6,7 C 2,8 C 54 % 1020,8 hPa 0,0 l/m 0 min 0 min 0 W/m 3,2 km/h (1 Bft) 97,87 %
10.03.2022 22:10 8,7 C 6,7 C 2,8 C 54 % 1020,8 hPa 0,0 l/m 0 min 0 min 0 W/m 12,9 km/h (3 Bft) 97,87 %
10.03.2022 22:12 8,6 C 6,7 C 2,8 C 54 % 1020,8 hPa 0,0 l/m 0 min 0 min 0 W/m 3,2 km/h (1 Bft) 97,87 %
10.03.2022 22:14 8,6 C 6,7 C 2,8 C 55 % 1020,8 hPa 0,0 l/m 0 min 0 min 0 W/m 3,2 km/h (1 Bft) 95,74 %
10.03.2022 22:16 8,5 C 6,7 C 2,8 C 54 % 1020,8 hPa 0,0 l/m 0 min 0 min 0 W/m 3,2 km/h (1 Bft) 97,83 %
10.03.2022 22:18 8,4 C 6,7 C 2,8 C 55 % 1020,7 hPa 0,0 l/m 0 min 0 min 0 W/m 6,4 km/h (2 Bft) 100,00 %
10.03.2022 22:20 8,4 C 6,7 C 2,8 C 55 % 1020,7 hPa 0,0 l/m 0 min 0 min 0 W/m 3,2 km/h (1 Bft) 100,00 %
10.03.2022 22:22 8,3 C 6,7 C 2,8 C 55 % 1020,7 hPa 0,0 l/m 0 min 0 min 0 W/m 3,2 km/h (1 Bft) 100,00 %
10.03.2022 22:24 8,3 C 6,7 C 2,8 C 56 % 1020,7 hPa 0,0 l/m 0 min 0 min 0 W/m 0,0 km/h (0 Bft) 97,87 %
10.03.2022 22:26 8,2 C 6,7 C 2,8 C 56 % 1020,6 hPa 0,0 l/m 0 min 0 min 0 W/m 3,2 km/h (1 Bft) 100,00 %
10.03.2022 22:28 8,2 C 6,7 C 2,8 C 56 % 1020,6 hPa 0,0 l/m 0 min 0 min 0 W/m 6,4 km/h (2 Bft) 97,83 %
10.03.2022 22:30 8,1 C 6,7 C 2,8 C 56 % 1020,6 hPa 0,0 l/m 0 min 0 min 0 W/m 6,4 km/h (2 Bft) 97,87 %
10.03.2022 22:32 8,1 C 6,1 C 2,8 C 56 % 1020,6 hPa 0,0 l/m 0 min 0 min 0 W/m 3,2 km/h (1 Bft) 97,87 %
10.03.2022 22:34 8,0 C 6,1 C 2,2 C 56 % 1020,6 hPa 0,0 l/m 0 min 0 min 0 W/m 3,2 km/h (1 Bft) 97,87 %
10.03.2022 22:36 7,9 C 6,1 C 2,2 C 56 % 1020,6 hPa 0,0 l/m 0 min 0 min 0 W/m 3,2 km/h (1 Bft) 97,87 %
10.03.2022 22:38 7,9 C 6,1 C 2,2 C 56 % 1020,5 hPa 0,0 l/m 0 min 0 min 0 W/m 3,2 km/h (1 Bft) 95,65 %
10.03.2022 22:40 7,8 C 6,1 C 2,2 C 57 % 1020,5 hPa 0,0 l/m 0 min 0 min 0 W/m 0,0 km/h (0 Bft) 97,87 %
10.03.2022 22:42 7,8 C 6,1 C 2,2 C 57 % 1020,5 hPa 0,0 l/m 0 min 0 min 0 W/m 3,2 km/h (1 Bft) 97,87 %
10.03.2022 22:44 7,7 C 6,1 C 2,2 C 57 % 1020,4 hPa 0,0 l/m 0 min 0 min 0 W/m 3,2 km/h (1 Bft) 97,87 %
10.03.2022 22:46 7,7 C 6,1 C 2,2 C 57 % 1020,4 hPa 0,0 l/m 0 min 0 min 0 W/m 3,2 km/h (1 Bft) 95,74 %
10.03.2022 22:48 7,6 C 6,1 C 2,2 C 57 % 1020,4 hPa 0,0 l/m 0 min 0 min 0 W/m 3,2 km/h (1 Bft) 97,87 %
10.03.2022 22:50 7,6 C 6,1 C 2,2 C 58 % 1020,4 hPa 0,0 l/m 0 min 0 min 0 W/m 6,4 km/h (2 Bft) 97,83 %
10.03.2022 22:52 7,6 C 6,1 C 2,2 C 57 % 1020,4 hPa 0,0 l/m 0 min 0 min 0 W/m 6,4 km/h (2 Bft) 100,00 %
10.03.2022 22:54 7,6 C 6,1 C 2,8 C 57 % 1020,4 hPa 0,0 l/m 0 min 0 min 0 W/m 12,9 km/h (3 Bft) 95,74 %
10.03.2022 22:56 7,6 C 6,7 C 2,8 C 57 % 1020,4 hPa 0,0 l/m 0 min 0 min 0 W/m 3,2 km/h (1 Bft) 97,87 %
10.03.2022 22:58 7,5 C 6,7 C 2,8 C 57 % 1020,3 hPa 0,0 l/m 0 min 0 min 0 W/m 3,2 km/h (1 Bft) 97,87 %
10.03.2022 23:00 7,5 C 6,7 C 2,8 C 57 % 1020,3 hPa 0,0 l/m 0 min 0 min 0 W/m 6,4 km/h (2 Bft) 97,87 %
10.03.2022 23:02 7,6 C 6,7 C 2,8 C 57 % 1020,3 hPa 0,0 l/m 0 min 0 min 0 W/m 3,2 km/h (1 Bft) 97,83 %
10.03.2022 23:04 7,6 C 6,7 C 2,8 C 57 % 1020,3 hPa 0,0 l/m 0 min 0 min 0 W/m 3,2 km/h (1 Bft) 100,00 %
10.03.2022 23:06 7,6 C 6,7 C 2,8 C 57 % 1020,3 hPa 0,0 l/m 0 min 0 min 0 W/m 6,4 km/h (2 Bft) 100,00 %
10.03.2022 23:08 7,6 C 6,7 C 2,8 C 58 % 1020,4 hPa 0,0 l/m 0 min 0 min 0 W/m 3,2 km/h (1 Bft) 100,00 %
10.03.2022 23:10 7,6 C 6,7 C 2,8 C 57 % 1020,3 hPa 0,0 l/m 0 min 0 min 0 W/m 3,2 km/h (1 Bft) 100,00 %
10.03.2022 23:12 7,6 C 6,7 C 2,8 C 57 % 1020,3 hPa 0,0 l/m 0 min 0 min 0 W/m 3,2 km/h (1 Bft) 100,00 %
10.03.2022 23:14 7,6 C 6,7 C 2,8 C 57 % 1020,3 hPa 0,0 l/m 0 min 0 min 0 W/m 6,4 km/h (2 Bft) 100,00 %
10.03.2022 23:16 7,6 C 6,7 C 2,8 C 57 % 1020,3 hPa 0,0 l/m 0 min 0 min 0 W/m 3,2 km/h (1 Bft) 100,00 %
10.03.2022 23:18 7,5 C 6,7 C 2,8 C 57 % 1020,2 hPa 0,0 l/m 0 min 0 min 0 W/m 6,4 km/h (2 Bft) 100,00 %
10.03.2022 23:20 7,5 C 6,7 C 2,8 C 58 % 1020,2 hPa 0,0 l/m 0 min 0 min 0 W/m 6,4 km/h (2 Bft) 100,00 %
10.03.2022 23:22 7,5 C 6,1 C 2,8 C 58 % 1020,2 hPa 0,0 l/m 0 min 0 min 0 W/m 3,2 km/h (1 Bft) 97,87 %
10.03.2022 23:24 7,5 C 6,1 C 2,8 C 58 % 1020,1 hPa 0,0 l/m 0 min 0 min 0 W/m 6,4 km/h (2 Bft) 100,00 %
10.03.2022 23:26 7,5 C 6,7 C 2,8 C 57 % 1020,1 hPa 0,0 l/m 0 min 0 min 0 W/m 6,4 km/h (2 Bft) 100,00 %
10.03.2022 23:28 7,5 C 6,7 C 2,8 C 57 % 1020,1 hPa 0,0 l/m 0 min 0 min 0 W/m 6,4 km/h (2 Bft) 100,00 %
10.03.2022 23:30 7,5 C 6,7 C 2,8 C 57 % 1020,1 hPa 0,0 l/m 0 min 0 min 0 W/m 12,9 km/h (3 Bft) 95,74 %
10.03.2022 23:32 7,6 C 6,7 C 2,8 C 57 % 1020,0 hPa 0,0 l/m 0 min 0 min 0 W/m 12,9 km/h (3 Bft) 95,74 %
10.03.2022 23:34 7,6 C 6,7 C 2,8 C 57 % 1020,1 hPa 0,0 l/m 0 min 0 min 0 W/m 6,4 km/h (2 Bft) 95,74 %
10.03.2022 23:36 7,6 C 6,7 C 2,8 C 57 % 1020,0 hPa 0,0 l/m 0 min 0 min 0 W/m 6,4 km/h (2 Bft) 93,62 %
10.03.2022 23:38 7,6 C 6,7 C 2,8 C 57 % 1020,0 hPa 0,0 l/m 0 min 0 min 0 W/m 12,9 km/h (3 Bft) 95,65 %
10.03.2022 23:40 7,6 C 6,7 C 2,8 C 57 % 1020,0 hPa 0,0 l/m 0 min 0 min 0 W/m 12,9 km/h (3 Bft) 95,74 %
10.03.2022 23:42 7,6 C 6,7 C 2,8 C 57 % 1020,0 hPa 0,0 l/m 0 min 0 min 0 W/m 6,4 km/h (2 Bft) 93,62 %
10.03.2022 23:44 7,6 C 6,7 C 2,8 C 57 % 1020,0 hPa 0,0 l/m 0 min 0 min 0 W/m 6,4 km/h (2 Bft) 95,74 %
10.03.2022 23:46 7,6 C 6,7 C 2,8 C 57 % 1019,9 hPa 0,0 l/m 0 min 0 min 0 W/m 6,4 km/h (2 Bft) 95,74 %
10.03.2022 23:48 7,6 C 6,7 C 2,8 C 56 % 1019,9 hPa 0,0 l/m 0 min 0 min 0 W/m 6,4 km/h (2 Bft) 95,74 %
10.03.2022 23:50 7,6 C 6,7 C 2,8 C 57 % 1019,9 hPa 0,0 l/m 0 min 0 min 0 W/m 9,7 km/h (2 Bft) 95,65 %
10.03.2022 23:52 7,6 C 6,7 C 2,8 C 57 % 1019,9 hPa 0,0 l/m 0 min 0 min 0 W/m 12,9 km/h (3 Bft) 95,74 %
10.03.2022 23:54 7,6 C 6,7 C 2,8 C 56 % 1019,8 hPa 0,0 l/m 0 min 0 min 0 W/m 3,2 km/h (1 Bft) 93,62 %
10.03.2022 23:56 7,6 C 6,7 C 2,8 C 57 % 1019,8 hPa 0,0 l/m 0 min 0 min 0 W/m 6,4 km/h (2 Bft) 93,62 %
10.03.2022 23:58 7,5 C 6,7 C 2,8 C 57 % 1019,8 hPa 0,0 l/m 0 min 0 min 0 W/m 6,4 km/h (2 Bft) 95,74 %
_ Min-Zeit 06:48 06:00 05:52 14:58 23:54 - - - - 22:02 07:30
Minimum _ 2,5 C 1,7 C -1,7 C 33 % 1019,8 hPa - - - - 0,0 km/h (0 Bft) 56,82 %
_ Max-Zeit 15:50 13:20 11:32 06:52 08:54 00:00 12:08 00:00 12:52 12:00 01:20
Maximum _ 17,2 C 22,8 C 14,4 C 66 % 1025,6 hPa 0,0 l/m 4 min 0 min 640 W/m 38,6 km/h
SO (5 Bft)
100,00 %
Durchschnitt _ 9,3 C 9,8 C 5,0 C 51 % 1023,3 hPa #0,0 l/m #8:08 h #0 min. 332 W/m 13,4 km/h (3 Bft) 97,21 %
© 2022 W. Hausmann